GEFSNE_prec_meanprecacc_168.txt.gz
Total_Precipitation_Accumulation
0.79 0.78 0.80 0.82 0.92 1.04 1.13 1.27 1.44 1.44 1.27 1.09 1.06 1.00 0.91 0.95 1.17 1.01 0.93 0.97 0.87 0.79 0.75 0.74 0.74 0.74 0.75 0.74 0.75 0.78 0.84 0.91 1.04 1.18 1.32 1.47 1.56 1.61
0.75 0.71 0.69 0.68 0.74 0.83 0.91 1.01 1.15 1.28 1.23 1.01 0.91 0.86 0.84 0.85 1.08 0.95 0.97 0.98 0.81 0.69 0.64 0.63 0.64 0.64 0.64 0.65 0.65 0.68 0.73 0.78 0.87 0.97 1.12 1.26 1.34 1.45
0.70 0.68 0.64 0.63 0.65 0.67 0.74 0.83 0.94 1.03 1.13 1.04 0.88 0.83 0.83 0.86 0.90 0.82 0.81 0.76 0.70 0.70 0.60 0.57 0.57 0.59 0.56 0.55 0.57 0.60 0.63 0.71 0.81 0.91 1.03 1.16 1.25 1.29
0.68 0.67 0.62 0.61 0.63 0.63 0.66 0.71 0.82 0.95 1.06 1.10 0.96 0.87 0.84 0.80 0.79 0.75 0.64 0.60 0.63 0.73 0.63 0.56 0.54 0.52 0.55 0.50 0.46 0.49 0.56 0.68 0.79 0.87 0.97 1.06 1.10 1.12
0.62 0.67 0.66 0.64 0.62 0.62 0.67 0.70 0.80 0.92 1.04 1.07 0.99 0.92 0.90 0.86 0.90 0.84 0.75 0.79 0.69 0.69 0.63 0.58 0.54 0.52 0.72 0.75 0.49 0.44 0.48 0.61 0.69 0.76 0.87 0.94 0.95 0.94
0.47 0.59 0.65 0.65 0.63 0.67 0.71 0.75 0.81 0.93 0.98 1.01 0.95 0.89 0.89 0.90 0.95 1.00 0.97 0.89 0.78 0.60 0.63 0.60 0.57 0.57 0.90 1.44 0.89 0.57 0.51 0.57 0.63 0.69 0.74 0.74 0.72 0.71
0.38 0.47 0.54 0.58 0.59 0.61 0.63 0.69 0.80 0.93 1.00 1.03 0.97 0.92 0.88 0.98 1.01 0.98 0.94 0.93 0.80 0.68 0.70 0.64 0.77 1.07 1.58 2.22 1.75 1.10 0.83 0.71 0.63 0.62 0.62 0.61 0.57 0.54
0.44 0.47 0.46 0.48 0.48 0.46 0.51 0.59 0.71 0.87 1.01 1.07 1.02 0.98 0.93 0.97 1.03 1.01 0.99 1.00 0.94 0.73 0.70 0.73 0.96 1.69 2.37 2.72 2.29 1.47 1.12 0.88 0.73 0.73 0.73 0.63 0.50 0.42
0.48 0.48 0.41 0.42 0.50 0.52 0.52 0.54 0.64 0.73 0.89 1.07 1.12 1.01 0.95 0.97 1.08 1.12 1.06 1.05 1.04 0.85 0.84 0.91 1.15 1.97 2.27 2.47 2.26 1.56 1.25 1.06 0.94 0.95 0.91 0.69 0.48 0.37
0.34 0.39 0.47 0.51 0.47 0.48 0.48 0.58 0.66 0.77 0.84 0.91 1.02 0.94 0.87 0.91 1.00 1.04 0.99 0.96 0.90 0.84 0.85 1.01 1.26 1.83 1.89 2.01 2.06 1.59 1.30 1.17 1.09 1.05 0.97 0.72 0.52 0.41
0.24 0.28 0.34 0.39 0.38 0.44 0.53 0.69 0.73 0.84 0.91 1.06 1.05 0.95 0.91 0.90 0.81 0.81 0.98 1.08 1.04 0.84 0.78 0.94 1.18 1.48 1.57 1.68 1.66 1.52 1.38 1.28 1.18 1.11 0.99 0.73 0.55 0.47
0.27 0.31 0.30 0.26 0.31 0.40 0.55 0.74 0.87 0.92 1.04 1.24 1.20 1.14 1.04 0.97 0.84 0.80 1.01 1.19 1.18 1.00 0.79 0.84 1.03 1.18 1.40 1.44 1.34 1.28 1.35 1.39 1.31 1.26 1.10 0.80 0.54 0.46
0.30 0.36 0.35 0.29 0.31 0.36 0.50 0.70 0.86 0.91 1.13 1.39 1.27 1.10 1.01 0.93 0.89 0.89 0.96 1.04 1.03 0.98 0.76 0.81 1.02 1.11 1.21 1.29 1.26 1.25 1.25 1.32 1.35 1.41 1.31 1.01 0.67 0.47
0.40 0.38 0.36 0.35 0.35 0.42 0.55 0.72 0.86 1.04 1.22 1.31 1.11 0.94 0.83 0.79 0.79 0.74 0.70 0.71 0.77 0.78 0.70 0.76 1.01 1.18 1.17 1.09 1.20 1.22 1.23 1.29 1.35 1.43 1.43 1.20 0.91 0.69
0.36 0.40 0.39 0.37 0.48 0.68 0.80 0.90 1.03 1.22 1.27 1.12 0.97 0.84 0.70 0.65 0.61 0.59 0.57 0.61 0.64 0.57 0.50 0.57 0.81 1.01 1.07 1.03 1.10 1.11 1.21 1.42 1.47 1.47 1.43 1.28 1.07 0.84
0.34 0.47 0.54 0.57 0.72 0.94 1.09 1.18 1.26 1.29 1.14 0.99 0.88 0.76 0.62 0.58 0.57 0.52 0.54 0.57 0.61 0.60 0.50 0.51 0.65 0.82 0.94 0.91 1.00 1.11 1.17 1.55 1.68 1.51 1.45 1.42 1.22 1.00
0.32 0.49 0.65 0.70 0.82 0.98 1.12 1.20 1.23 1.21 1.11 0.95 0.84 0.73 0.63 0.57 0.54 0.47 0.47 0.48 0.52 0.55 0.54 0.55 0.61 0.67 0.73 0.79 0.94 1.09 1.21 1.45 1.58 1.41 1.28 1.39 1.33 1.11
0.39 0.60 0.71 0.71 0.78 0.88 0.98 1.07 1.05 1.00 0.93 0.88 0.83 0.76 0.67 0.57 0.53 0.49 0.46 0.46 0.51 0.51 0.51 0.50 0.47 0.45 0.52 0.66 0.91 1.02 1.07 1.25 1.31 1.17 1.00 1.07 1.23 1.10
0.44 0.63 0.73 0.78 0.81 0.84 0.86 0.89 0.94 0.93 0.85 0.79 0.74 0.68 0.60 0.53 0.50 0.48 0.43 0.42 0.43 0.43 0.39 0.33 0.29 0.28 0.36 0.68 0.96 1.06 0.99 1.00 0.96 0.93 0.86 0.82 0.97 0.97
0.45 0.60 0.70 0.75 0.79 0.81 0.79 0.75 0.79 0.81 0.75 0.67 0.62 0.57 0.52 0.49 0.45 0.43 0.39 0.32 0.31 0.31 0.31 0.27 0.24 0.26 0.32 0.54 0.96 1.17 0.98 0.73 0.66 0.71 0.71 0.70 0.83 0.89
0.41 0.53 0.62 0.66 0.67 0.67 0.67 0.66 0.67 0.68 0.64 0.58 0.55 0.51 0.48 0.43 0.40 0.33 0.28 0.20 0.23 0.25 0.27 0.30 0.30 0.24 0.22 0.29 0.59 0.88 0.92 0.82 0.62 0.53 0.52 0.55 0.59 0.56
0.36 0.46 0.54 0.57 0.56 0.52 0.49 0.49 0.50 0.50 0.50 0.48 0.47 0.45 0.41 0.37 0.30 0.25 0.23 0.22 0.23 0.22 0.22 0.24 0.23 0.20 0.20 0.27 0.44 0.63 0.70 0.62 0.56 0.54 0.50 0.41 0.36 0.44
0.34 0.38 0.42 0.46 0.45 0.41 0.37 0.34 0.35 0.38 0.38 0.39 0.40 0.39 0.34 0.29 0.24 0.19 0.16 0.14 0.14 0.15 0.14 0.17 0.18 0.17 0.17 0.19 0.25 0.34 0.37 0.34 0.29 0.32 0.46 0.49 0.43 0.50

GEFSNE_prec_meanprecacc_174.txt.gz
Total_Precipitation_Accumulation
0.84 0.83 0.86 0.88 0.98 1.10 1.20 1.34 1.51 1.52 1.35 1.15 1.13 1.09 1.01 1.07 1.29 1.06 0.95 0.99 0.89 0.80 0.75 0.74 0.75 0.75 0.75 0.75 0.75 0.79 0.85 0.93 1.07 1.21 1.37 1.52 1.62 1.68
0.81 0.76 0.74 0.74 0.80 0.88 0.97 1.07 1.23 1.36 1.30 1.07 0.96 0.92 0.91 0.91 1.14 0.98 0.99 1.00 0.82 0.70 0.65 0.64 0.64 0.65 0.65 0.65 0.65 0.69 0.75 0.80 0.90 1.01 1.16 1.30 1.39 1.51
0.75 0.73 0.70 0.69 0.71 0.74 0.80 0.90 1.02 1.13 1.22 1.12 0.94 0.87 0.87 0.90 0.95 0.86 0.83 0.78 0.72 0.71 0.61 0.58 0.57 0.59 0.57 0.56 0.59 0.62 0.66 0.74 0.85 0.96 1.08 1.23 1.32 1.37
0.73 0.73 0.69 0.68 0.70 0.71 0.74 0.79 0.91 1.04 1.15 1.19 1.04 0.93 0.89 0.84 0.82 0.78 0.67 0.62 0.64 0.75 0.64 0.57 0.54 0.53 0.56 0.52 0.49 0.52 0.59 0.70 0.82 0.91 1.03 1.13 1.19 1.21
0.67 0.74 0.75 0.72 0.70 0.70 0.74 0.78 0.89 1.00 1.13 1.15 1.06 0.97 0.95 0.90 0.93 0.87 0.77 0.82 0.71 0.71 0.65 0.59 0.55 0.54 0.73 0.76 0.52 0.47 0.51 0.64 0.72 0.79 0.91 0.99 1.01 1.01
0.52 0.66 0.73 0.71 0.70 0.74 0.78 0.82 0.88 1.00 1.07 1.09 1.02 0.94 0.94 0.96 0.99 1.03 1.00 0.94 0.83 0.63 0.65 0.61 0.59 0.60 0.93 1.47 0.92 0.60 0.55 0.59 0.66 0.72 0.76 0.77 0.76 0.76
0.42 0.52 0.58 0.62 0.64 0.68 0.69 0.75 0.86 1.00 1.07 1.11 1.04 0.98 0.93 1.03 1.06 1.02 0.99 0.99 0.86 0.73 0.73 0.67 0.80 1.10 1.63 2.27 1.79 1.13 0.87 0.73 0.64 0.64 0.64 0.64 0.60 0.57
0.49 0.52 0.50 0.52 0.51 0.50 0.56 0.63 0.75 0.91 1.06 1.14 1.09 1.04 0.98 1.02 1.09 1.06 1.06 1.06 1.02 0.79 0.75 0.76 0.99 1.73 2.41 2.76 2.32 1.49 1.14 0.90 0.74 0.74 0.74 0.64 0.52 0.44
0.52 0.52 0.44 0.43 0.52 0.55 0.56 0.57 0.66 0.76 0.92 1.12 1.19 1.09 1.03 1.04 1.15 1.19 1.13 1.11 1.10 0.90 0.87 0.94 1.18 1.99 2.30 2.48 2.27 1.57 1.26 1.07 0.96 0.97 0.92 0.70 0.49 0.38
0.36 0.42 0.51 0.54 0.48 0.49 0.51 0.62 0.70 0.80 0.86 0.94 1.09 1.02 0.95 0.97 1.07 1.11 1.04 1.01 0.96 0.88 0.89 1.05 1.30 1.85 1.91 2.03 2.07 1.60 1.32 1.19 1.13 1.09 0.99 0.74 0.53 0.42
0.25 0.29 0.35 0.40 0.39 0.44 0.55 0.72 0.78 0.88 0.92 1.07 1.07 1.00 0.96 0.94 0.85 0.86 1.03 1.15 1.11 0.89 0.82 0.98 1.21 1.50 1.59 1.70 1.67 1.54 1.41 1.32 1.21 1.14 1.02 0.75 0.57 0.48
0.29 0.33 0.31 0.27 0.31 0.40 0.58 0.78 0.91 0.96 1.06 1.26 1.22 1.17 1.08 1.01 0.88 0.86 1.07 1.25 1.23 1.04 0.82 0.87 1.06 1.20 1.43 1.45 1.36 1.30 1.38 1.42 1.33 1.28 1.12 0.82 0.55 0.46
0.33 0.37 0.36 0.30 0.31 0.36 0.51 0.71 0.88 0.93 1.15 1.41 1.31 1.14 1.05 0.98 0.95 0.95 1.03 1.10 1.08 1.02 0.79 0.85 1.04 1.13 1.24 1.31 1.27 1.27 1.26 1.33 1.37 1.42 1.31 1.02 0.68 0.48
0.42 0.39 0.36 0.35 0.35 0.42 0.56 0.73 0.87 1.05 1.23 1.33 1.14 0.97 0.86 0.83 0.84 0.79 0.74 0.75 0.81 0.81 0.73 0.79 1.03 1.20 1.19 1.11 1.21 1.23 1.24 1.29 1.35 1.43 1.43 1.21 0.92 0.70
0.38 0.40 0.39 0.38 0.48 0.68 0.80 0.91 1.05 1.25 1.29 1.15 1.00 0.88 0.73 0.68 0.63 0.62 0.60 0.64 0.67 0.59 0.52 0.60 0.84 1.03 1.10 1.06 1.12 1.13 1.23 1.44 1.48 1.48 1.44 1.29 1.07 0.85
0.36 0.48 0.54 0.57 0.73 0.94 1.10 1.19 1.27 1.30 1.15 1.01 0.90 0.78 0.64 0.61 0.59 0.54 0.56 0.59 0.64 0.62 0.53 0.54 0.67 0.85 0.97 0.94 1.02 1.13 1.19 1.57 1.69 1.52 1.46 1.43 1.22 1.00
0.34 0.51 0.66 0.71 0.84 0.99 1.13 1.21 1.26 1.23 1.13 0.98 0.87 0.76 0.65 0.59 0.56 0.48 0.48 0.50 0.54 0.57 0.57 0.58 0.63 0.69 0.75 0.81 0.97 1.11 1.23 1.47 1.60 1.42 1.29 1.40 1.34 1.12
0.40 0.62 0.73 0.73 0.80 0.90 1.01 1.09 1.08 1.04 0.97 0.92 0.87 0.80 0.70 0.59 0.55 0.51 0.47 0.47 0.52 0.53 0.53 0.52 0.50 0.48 0.54 0.67 0.92 1.03 1.08 1.27 1.32 1.18 1.01 1.08 1.25 1.11
0.46 0.66 0.76 0.81 0.85 0.88 0.89 0.92 0.97 0.95 0.87 0.82 0.78 0.72 0.63 0.56 0.52 0.49 0.45 0.44 0.45 0.44 0.41 0.34 0.31 0.30 0.38 0.71 0.98 1.07 1.00 1.01 0.98 0.95 0.87 0.83 0.98 0.98
0.47 0.62 0.73 0.79 0.84 0.85 0.83 0.79 0.82 0.84 0.78 0.70 0.65 0.60 0.55 0.52 0.48 0.45 0.41 0.34 0.33 0.33 0.32 0.28 0.25 0.27 0.34 0.56 0.97 1.18 0.99 0.74 0.66 0.71 0.72 0.71 0.83 0.90
0.43 0.54 0.64 0.70 0.71 0.71 0.72 0.70 0.71 0.72 0.68 0.62 0.58 0.54 0.51 0.47 0.43 0.35 0.30 0.22 0.25 0.26 0.28 0.31 0.30 0.25 0.22 0.30 0.60 0.89 0.93 0.83 0.62 0.54 0.52 0.56 0.60 0.57
0.38 0.49 0.58 0.60 0.58 0.53 0.51 0.51 0.53 0.53 0.53 0.52 0.50 0.48 0.44 0.39 0.32 0.26 0.23 0.23 0.25 0.24 0.23 0.24 0.23 0.20 0.21 0.29 0.46 0.64 0.71 0.63 0.56 0.55 0.51 0.41 0.37 0.44
0.37 0.41 0.45 0.48 0.46 0.42 0.38 0.36 0.37 0.39 0.40 0.41 0.42 0.42 0.36 0.31 0.26 0.21 0.18 0.16 0.17 0.16 0.17 0.18 0.19 0.18 0.18 0.21 0.27 0.35 0.38 0.35 0.31 0.33 0.47 0.50 0.44 0.50

GEFSNE_prec_meanprecacc_180.txt.gz
Total_Precipitation_Accumulation
0.86 0.85 0.88 0.90 1.00 1.12 1.22 1.38 1.54 1.55 1.38 1.18 1.15 1.12 1.05 1.11 1.35 1.13 1.00 1.02 0.90 0.81 0.77 0.75 0.75 0.75 0.76 0.76 0.76 0.81 0.86 0.94 1.08 1.23 1.39 1.55 1.65 1.71
0.82 0.78 0.76 0.78 0.84 0.91 0.99 1.10 1.26 1.39 1.35 1.11 0.99 0.94 0.94 0.95 1.19 1.02 1.03 1.03 0.84 0.71 0.66 0.65 0.65 0.66 0.66 0.67 0.67 0.71 0.76 0.81 0.91 1.02 1.18 1.33 1.42 1.53
0.77 0.75 0.73 0.72 0.75 0.78 0.84 0.93 1.06 1.18 1.28 1.18 0.99 0.90 0.91 0.93 0.99 0.90 0.87 0.81 0.74 0.72 0.62 0.59 0.58 0.61 0.59 0.58 0.61 0.63 0.67 0.75 0.86 0.97 1.10 1.25 1.35 1.40
0.76 0.76 0.72 0.70 0.72 0.73 0.77 0.82 0.95 1.09 1.20 1.25 1.10 0.97 0.92 0.88 0.85 0.81 0.71 0.66 0.67 0.77 0.65 0.58 0.55 0.54 0.57 0.53 0.50 0.54 0.60 0.72 0.83 0.92 1.04 1.15 1.21 1.24
0.71 0.77 0.78 0.76 0.73 0.73 0.76 0.82 0.93 1.05 1.17 1.21 1.13 1.02 0.98 0.95 0.97 0.89 0.81 0.86 0.74 0.73 0.66 0.60 0.56 0.55 0.74 0.77 0.53 0.48 0.52 0.64 0.73 0.81 0.92 1.00 1.03 1.04
0.55 0.69 0.76 0.74 0.73 0.78 0.82 0.87 0.93 1.05 1.12 1.14 1.07 0.99 0.99 1.00 1.03 1.06 1.02 0.97 0.85 0.64 0.66 0.62 0.60 0.61 0.95 1.48 0.93 0.61 0.56 0.61 0.67 0.73 0.78 0.79 0.78 0.78
0.44 0.54 0.61 0.64 0.66 0.70 0.73 0.80 0.91 1.05 1.12 1.15 1.08 1.02 0.97 1.06 1.09 1.04 1.00 1.02 0.90 0.76 0.74 0.68 0.81 1.11 1.64 2.28 1.80 1.14 0.88 0.76 0.67 0.66 0.66 0.66 0.62 0.59
0.50 0.52 0.51 0.53 0.53 0.51 0.58 0.66 0.79 0.97 1.12 1.17 1.13 1.09 1.03 1.05 1.11 1.09 1.08 1.10 1.07 0.82 0.77 0.78 1.01 1.75 2.42 2.78 2.33 1.51 1.16 0.93 0.77 0.77 0.76 0.67 0.54 0.46
0.53 0.53 0.44 0.44 0.53 0.56 0.57 0.59 0.70 0.82 1.01 1.19 1.22 1.13 1.08 1.08 1.18 1.22 1.16 1.16 1.13 0.92 0.90 0.97 1.21 2.01 2.32 2.50 2.29 1.58 1.28 1.09 0.98 1.00 0.95 0.72 0.51 0.40
0.37 0.43 0.51 0.54 0.48 0.50 0.52 0.63 0.71 0.82 0.91 1.01 1.14 1.06 0.99 1.02 1.10 1.14 1.07 1.03 0.98 0.90 0.92 1.07 1.32 1.87 1.93 2.04 2.09 1.61 1.32 1.20 1.14 1.10 1.02 0.76 0.54 0.43
0.26 0.29 0.36 0.40 0.39 0.45 0.55 0.73 0.78 0.89 0.93 1.10 1.11 1.03 1.00 0.98 0.90 0.91 1.07 1.17 1.13 0.91 0.84 1.00 1.23 1.51 1.60 1.71 1.68 1.55 1.42 1.33 1.22 1.15 1.03 0.76 0.58 0.49
0.29 0.33 0.31 0.27 0.31 0.41 0.59 0.79 0.92 0.97 1.07 1.26 1.23 1.19 1.10 1.04 0.91 0.90 1.11 1.27 1.25 1.06 0.84 0.89 1.08 1.21 1.43 1.46 1.36 1.32 1.40 1.44 1.34 1.29 1.13 0.83 0.56 0.47
0.33 0.38 0.36 0.30 0.31 0.37 0.52 0.72 0.89 0.94 1.15 1.42 1.32 1.15 1.07 1.00 0.96 0.98 1.07 1.13 1.10 1.04 0.81 0.87 1.07 1.14 1.25 1.32 1.29 1.29 1.28 1.35 1.38 1.43 1.34 1.04 0.69 0.49
0.43 0.39 0.36 0.36 0.35 0.42 0.57 0.74 0.88 1.06 1.24 1.34 1.15 0.98 0.88 0.84 0.86 0.81 0.77 0.78 0.84 0.84 0.74 0.81 1.06 1.22 1.20 1.12 1.22 1.24 1.25 1.30 1.36 1.44 1.44 1.22 0.93 0.72
0.38 0.40 0.39 0.38 0.48 0.68 0.81 0.92 1.06 1.25 1.30 1.16 1.01 0.89 0.75 0.70 0.65 0.64 0.64 0.66 0.69 0.61 0.53 0.61 0.85 1.05 1.11 1.07 1.13 1.13 1.23 1.44 1.48 1.48 1.44 1.29 1.08 0.86
0.36 0.48 0.54 0.57 0.73 0.94 1.10 1.20 1.28 1.31 1.16 1.02 0.92 0.79 0.65 0.63 0.61 0.56 0.60 0.62 0.66 0.64 0.54 0.54 0.68 0.86 0.98 0.95 1.03 1.14 1.20 1.57 1.70 1.53 1.47 1.44 1.23 1.01
0.34 0.52 0.66 0.71 0.84 1.00 1.14 1.22 1.26 1.25 1.15 1.00 0.88 0.77 0.68 0.62 0.58 0.50 0.50 0.52 0.56 0.59 0.58 0.59 0.64 0.70 0.76 0.83 0.98 1.12 1.24 1.47 1.60 1.42 1.30 1.41 1.34 1.12
0.41 0.63 0.74 0.74 0.81 0.90 1.01 1.10 1.10 1.06 0.99 0.95 0.90 0.83 0.74 0.63 0.59 0.53 0.49 0.49 0.54 0.55 0.55 0.54 0.51 0.49 0.56 0.69 0.93 1.04 1.09 1.27 1.33 1.19 1.02 1.09 1.25 1.11
0.47 0.66 0.77 0.82 0.85 0.88 0.90 0.94 0.99 0.98 0.90 0.85 0.81 0.75 0.66 0.59 0.55 0.52 0.48 0.46 0.46 0.46 0.42 0.36 0.32 0.32 0.41 0.73 0.99 1.07 1.01 1.01 0.99 0.96 0.89 0.84 0.99 0.98
0.48 0.64 0.75 0.81 0.85 0.86 0.84 0.82 0.85 0.87 0.81 0.73 0.68 0.64 0.58 0.54 0.51 0.48 0.44 0.37 0.36 0.35 0.34 0.29 0.27 0.28 0.36 0.59 1.00 1.19 0.99 0.74 0.68 0.73 0.74 0.72 0.85 0.91
0.44 0.57 0.67 0.73 0.73 0.73 0.74 0.74 0.74 0.75 0.70 0.64 0.62 0.59 0.55 0.51 0.45 0.38 0.32 0.24 0.27 0.29 0.30 0.33 0.32 0.27 0.24 0.32 0.62 0.91 0.94 0.84 0.64 0.55 0.54 0.58 0.62 0.59
0.41 0.52 0.61 0.63 0.61 0.57 0.56 0.57 0.56 0.56 0.57 0.56 0.54 0.52 0.49 0.43 0.35 0.29 0.26 0.26 0.27 0.26 0.25 0.26 0.25 0.23 0.24 0.31 0.48 0.66 0.72 0.64 0.58 0.57 0.52 0.43 0.38 0.46
0.41 0.45 0.50 0.53 0.52 0.48 0.45 0.41 0.40 0.43 0.44 0.45 0.46 0.45 0.39 0.34 0.29 0.23 0.20 0.18 0.19 0.19 0.19 0.20 0.20 0.20 0.21 0.23 0.29 0.37 0.40 0.37 0.33 0.35 0.48 0.51 0.44 0.51

GEFSNE_prec_meanprecacc_186.txt.gz
Total_Precipitation_Accumulation
0.89 0.87 0.89 0.91 1.02 1.15 1.26 1.42 1.60 1.60 1.42 1.21 1.19 1.16 1.08 1.14 1.38 1.16 1.04 1.06 0.95 0.85 0.82 0.79 0.78 0.77 0.78 0.78 0.80 0.85 0.92 1.01 1.16 1.29 1.44 1.60 1.70 1.77
0.85 0.81 0.78 0.79 0.85 0.93 1.01 1.13 1.29 1.43 1.39 1.16 1.04 0.99 0.97 0.97 1.23 1.06 1.06 1.06 0.87 0.74 0.67 0.66 0.66 0.66 0.67 0.68 0.68 0.72 0.78 0.85 0.95 1.06 1.21 1.36 1.44 1.55
0.79 0.77 0.74 0.74 0.78 0.80 0.86 0.96 1.08 1.20 1.32 1.23 1.04 0.96 0.94 0.97 1.04 0.95 0.93 0.86 0.78 0.75 0.64 0.60 0.59 0.62 0.59 0.59 0.62 0.65 0.68 0.77 0.89 1.01 1.13 1.27 1.37 1.41
0.77 0.77 0.74 0.72 0.76 0.76 0.79 0.85 0.97 1.11 1.23 1.29 1.14 1.03 0.96 0.91 0.90 0.86 0.75 0.71 0.72 0.81 0.68 0.60 0.57 0.55 0.58 0.54 0.52 0.56 0.62 0.74 0.86 0.95 1.07 1.18 1.23 1.26
0.73 0.78 0.79 0.78 0.76 0.75 0.78 0.84 0.96 1.07 1.19 1.23 1.16 1.07 1.04 0.98 1.00 0.93 0.83 0.88 0.76 0.75 0.68 0.62 0.58 0.56 0.76 0.79 0.55 0.51 0.55 0.68 0.76 0.83 0.94 1.03 1.06 1.06
0.58 0.71 0.77 0.76 0.75 0.79 0.83 0.88 0.94 1.07 1.15 1.17 1.11 1.03 1.02 1.03 1.07 1.10 1.05 1.00 0.88 0.66 0.67 0.63 0.61 0.63 0.97 1.50 0.96 0.65 0.59 0.64 0.70 0.75 0.80 0.80 0.80 0.80
0.47 0.56 0.63 0.66 0.68 0.72 0.75 0.82 0.93 1.07 1.14 1.18 1.12 1.06 1.01 1.09 1.12 1.08 1.04 1.05 0.94 0.78 0.76 0.69 0.82 1.12 1.66 2.30 1.82 1.16 0.91 0.78 0.68 0.67 0.67 0.67 0.64 0.61
0.53 0.55 0.53 0.56 0.55 0.53 0.60 0.67 0.81 0.99 1.14 1.19 1.15 1.12 1.05 1.08 1.14 1.13 1.12 1.15 1.13 0.86 0.79 0.80 1.02 1.76 2.44 2.79 2.35 1.53 1.18 0.94 0.78 0.78 0.77 0.68 0.56 0.48
0.56 0.55 0.46 0.46 0.56 0.58 0.59 0.60 0.71 0.83 1.02 1.20 1.25 1.14 1.10 1.10 1.21 1.26 1.20 1.20 1.18 0.97 0.95 1.01 1.23 2.03 2.34 2.52 2.32 1.60 1.29 1.10 0.98 1.00 0.96 0.74 0.53 0.42
0.40 0.45 0.53 0.56 0.50 0.51 0.54 0.64 0.72 0.83 0.91 1.02 1.17 1.08 1.01 1.05 1.14 1.18 1.11 1.08 1.02 0.94 0.96 1.12 1.35 1.89 1.95 2.05 2.10 1.63 1.34 1.21 1.15 1.12 1.03 0.78 0.57 0.47
0.28 0.31 0.37 0.41 0.40 0.46 0.57 0.74 0.79 0.89 0.94 1.11 1.12 1.05 1.02 1.02 0.94 0.96 1.12 1.23 1.17 0.94 0.86 1.03 1.26 1.53 1.62 1.72 1.69 1.56 1.43 1.33 1.23 1.16 1.04 0.78 0.60 0.52
0.30 0.34 0.32 0.27 0.32 0.42 0.60 0.79 0.92 0.97 1.07 1.27 1.24 1.20 1.12 1.06 0.95 0.95 1.17 1.31 1.28 1.08 0.85 0.91 1.09 1.22 1.45 1.47 1.37 1.32 1.41 1.44 1.35 1.30 1.14 0.84 0.57 0.48
0.33 0.38 0.36 0.30 0.31 0.38 0.53 0.73 0.90 0.94 1.16 1.42 1.33 1.16 1.08 1.02 0.99 1.01 1.10 1.15 1.12 1.06 0.82 0.88 1.08 1.16 1.26 1.33 1.30 1.30 1.29 1.36 1.39 1.44 1.34 1.05 0.70 0.49
0.43 0.39 0.36 0.36 0.35 0.42 0.57 0.75 0.89 1.06 1.24 1.34 1.16 0.99 0.89 0.85 0.88 0.83 0.79 0.80 0.85 0.85 0.76 0.83 1.08 1.23 1.22 1.14 1.24 1.25 1.26 1.31 1.37 1.45 1.46 1.23 0.94 0.73
0.38 0.41 0.40 0.38 0.48 0.69 0.81 0.92 1.07 1.25 1.30 1.17 1.02 0.89 0.76 0.71 0.67 0.67 0.67 0.69 0.70 0.63 0.55 0.63 0.88 1.07 1.14 1.09 1.16 1.15 1.24 1.45 1.49 1.50 1.46 1.31 1.10 0.87
0.38 0.49 0.55 0.58 0.74 0.95 1.11 1.21 1.29 1.31 1.17 1.03 0.93 0.81 0.67 0.64 0.64 0.61 0.67 0.66 0.69 0.66 0.56 0.57 0.71 0.89 1.01 0.98 1.06 1.16 1.21 1.58 1.71 1.54 1.49 1.46 1.24 1.02
0.35 0.53 0.67 0.72 0.85 1.00 1.15 1.23 1.27 1.26 1.16 1.01 0.89 0.79 0.69 0.63 0.61 0.55 0.59 0.59 0.60 0.62 0.61 0.61 0.66 0.72 0.79 0.85 1.00 1.14 1.26 1.49 1.62 1.44 1.31 1.42 1.35 1.13
0.42 0.64 0.75 0.75 0.81 0.91 1.02 1.11 1.10 1.07 1.00 0.97 0.92 0.86 0.76 0.64 0.61 0.57 0.53 0.54 0.60 0.58 0.57 0.55 0.53 0.51 0.58 0.71 0.94 1.05 1.10 1.29 1.34 1.21 1.03 1.10 1.27 1.13
0.48 0.67 0.77 0.83 0.86 0.89 0.91 0.94 1.00 0.99 0.91 0.88 0.84 0.78 0.69 0.61 0.58 0.56 0.52 0.51 0.50 0.49 0.45 0.38 0.35 0.36 0.44 0.75 1.00 1.09 1.02 1.03 0.99 0.97 0.90 0.86 1.01 1.01
0.49 0.64 0.75 0.81 0.85 0.87 0.86 0.83 0.87 0.89 0.83 0.76 0.72 0.67 0.61 0.58 0.55 0.53 0.49 0.41 0.39 0.38 0.37 0.32 0.29 0.31 0.40 0.61 1.02 1.21 1.01 0.76 0.69 0.75 0.76 0.75 0.89 0.95
0.45 0.57 0.68 0.73 0.73 0.74 0.76 0.75 0.77 0.81 0.76 0.69 0.67 0.63 0.59 0.55 0.50 0.42 0.36 0.28 0.31 0.32 0.33 0.35 0.34 0.29 0.27 0.35 0.65 0.94 0.97 0.86 0.66 0.58 0.56 0.61 0.65 0.61
0.42 0.53 0.62 0.64 0.62 0.58 0.58 0.59 0.61 0.63 0.63 0.62 0.59 0.56 0.52 0.48 0.39 0.32 0.29 0.29 0.30 0.29 0.28 0.28 0.27 0.25 0.26 0.34 0.51 0.69 0.74 0.66 0.60 0.58 0.54 0.45 0.40 0.48
0.42 0.46 0.51 0.54 0.54 0.50 0.47 0.44 0.45 0.48 0.49 0.49 0.50 0.48 0.42 0.37 0.31 0.26 0.24 0.21 0.21 0.21 0.21 0.23 0.22 0.22 0.23 0.25 0.31 0.39 0.41 0.39 0.34 0.37 0.49 0.52 0.46 0.52

GEFSNE_prec_meanprecacc_192.txt.gz
Total_Precipitation_Accumulation
0.94 0.91 0.93 0.96 1.07 1.20 1.30 1.49 1.68 1.68 1.48 1.26 1.23 1.20 1.12 1.19 1.43 1.20 1.08 1.11 1.02 0.93 0.92 0.90 0.88 0.86 0.86 0.86 0.87 0.93 0.99 1.09 1.25 1.39 1.54 1.70 1.81 1.88
0.89 0.84 0.82 0.84 0.89 0.97 1.05 1.18 1.36 1.51 1.46 1.21 1.09 1.03 1.01 1.01 1.27 1.09 1.09 1.09 0.92 0.79 0.73 0.73 0.74 0.73 0.72 0.73 0.73 0.77 0.82 0.89 1.02 1.14 1.30 1.44 1.53 1.65
0.82 0.81 0.79 0.78 0.81 0.83 0.89 0.99 1.13 1.26 1.39 1.28 1.08 0.99 0.98 1.01 1.08 1.00 0.97 0.90 0.82 0.80 0.70 0.66 0.64 0.66 0.63 0.62 0.66 0.68 0.71 0.80 0.93 1.06 1.19 1.33 1.43 1.48
0.79 0.79 0.76 0.76 0.80 0.79 0.81 0.88 1.01 1.15 1.28 1.33 1.19 1.08 1.01 0.96 0.96 0.93 0.81 0.77 0.77 0.86 0.73 0.64 0.60 0.58 0.60 0.56 0.54 0.58 0.64 0.76 0.88 0.98 1.10 1.22 1.29 1.32
0.75 0.80 0.81 0.81 0.79 0.77 0.81 0.87 0.99 1.11 1.24 1.27 1.20 1.12 1.08 1.02 1.04 0.98 0.88 0.94 0.80 0.79 0.71 0.66 0.61 0.58 0.77 0.80 0.56 0.52 0.56 0.69 0.79 0.85 0.96 1.05 1.09 1.11
0.61 0.73 0.79 0.79 0.78 0.82 0.86 0.91 0.98 1.11 1.19 1.22 1.15 1.08 1.06 1.07 1.11 1.15 1.10 1.04 0.92 0.70 0.72 0.68 0.65 0.65 0.98 1.51 0.97 0.66 0.60 0.65 0.73 0.80 0.84 0.84 0.83 0.83
0.51 0.59 0.65 0.68 0.70 0.74 0.77 0.85 0.97 1.11 1.17 1.21 1.16 1.10 1.04 1.13 1.17 1.13 1.09 1.10 0.97 0.81 0.80 0.72 0.85 1.15 1.68 2.32 1.83 1.17 0.92 0.79 0.71 0.71 0.74 0.74 0.71 0.66
0.56 0.58 0.55 0.57 0.57 0.56 0.63 0.71 0.85 1.03 1.17 1.22 1.18 1.15 1.08 1.11 1.18 1.17 1.17 1.20 1.17 0.90 0.83 0.83 1.05 1.80 2.48 2.82 2.36 1.54 1.19 0.96 0.80 0.80 0.80 0.73 0.62 0.54
0.60 0.59 0.49 0.48 0.58 0.60 0.61 0.63 0.73 0.85 1.05 1.23 1.28 1.18 1.13 1.13 1.24 1.29 1.23 1.23 1.21 1.01 0.99 1.04 1.26 2.05 2.36 2.54 2.34 1.61 1.31 1.13 1.00 1.02 0.97 0.76 0.56 0.44
0.44 0.50 0.58 0.60 0.54 0.56 0.57 0.68 0.76 0.86 0.94 1.04 1.20 1.12 1.05 1.09 1.18 1.21 1.15 1.12 1.06 0.98 0.99 1.15 1.37 1.92 1.96 2.07 2.12 1.65 1.35 1.23 1.17 1.13 1.05 0.79 0.58 0.47
0.32 0.36 0.42 0.46 0.44 0.52 0.63 0.79 0.84 0.94 0.97 1.12 1.13 1.06 1.03 1.03 0.97 0.99 1.16 1.27 1.21 0.98 0.89 1.06 1.28 1.55 1.64 1.73 1.70 1.57 1.44 1.34 1.24 1.17 1.05 0.79 0.61 0.52
0.35 0.40 0.39 0.33 0.36 0.47 0.66 0.85 0.98 1.02 1.11 1.29 1.26 1.21 1.12 1.07 0.96 0.98 1.21 1.37 1.33 1.12 0.88 0.94 1.12 1.25 1.47 1.49 1.39 1.34 1.42 1.46 1.36 1.31 1.15 0.85 0.58 0.49
0.38 0.43 0.42 0.34 0.35 0.41 0.57 0.76 0.93 0.97 1.18 1.45 1.35 1.18 1.10 1.03 1.01 1.03 1.13 1.19 1.16 1.10 0.86 0.92 1.11 1.19 1.29 1.35 1.31 1.31 1.30 1.37 1.41 1.46 1.36 1.06 0.71 0.50
0.45 0.42 0.39 0.38 0.37 0.44 0.59 0.76 0.90 1.08 1.26 1.36 1.18 1.02 0.91 0.88 0.91 0.85 0.81 0.82 0.87 0.88 0.80 0.87 1.11 1.27 1.26 1.18 1.27 1.27 1.28 1.33 1.39 1.47 1.47 1.25 0.95 0.73
0.39 0.43 0.41 0.40 0.50 0.71 0.83 0.94 1.08 1.27 1.32 1.19 1.04 0.91 0.78 0.74 0.71 0.70 0.69 0.71 0.73 0.65 0.58 0.66 0.90 1.10 1.17 1.13 1.18 1.18 1.27 1.48 1.52 1.52 1.48 1.33 1.11 0.89
0.39 0.51 0.57 0.60 0.75 0.96 1.12 1.22 1.30 1.33 1.19 1.06 0.96 0.83 0.69 0.68 0.67 0.64 0.71 0.70 0.74 0.71 0.61 0.62 0.75 0.93 1.04 1.01 1.09 1.19 1.25 1.63 1.75 1.57 1.52 1.48 1.27 1.04
0.36 0.54 0.69 0.73 0.86 1.01 1.15 1.23 1.28 1.27 1.17 1.03 0.92 0.81 0.72 0.67 0.65 0.60 0.65 0.65 0.67 0.69 0.67 0.68 0.72 0.77 0.82 0.88 1.03 1.17 1.30 1.54 1.67 1.49 1.35 1.46 1.39 1.17
0.42 0.65 0.76 0.76 0.82 0.92 1.03 1.12 1.12 1.08 1.02 0.99 0.93 0.88 0.79 0.69 0.66 0.62 0.62 0.64 0.69 0.66 0.64 0.62 0.59 0.57 0.64 0.75 0.98 1.09 1.14 1.33 1.39 1.25 1.06 1.14 1.30 1.15
0.49 0.68 0.79 0.84 0.87 0.89 0.91 0.95 1.01 1.01 0.93 0.90 0.86 0.81 0.72 0.65 0.63 0.63 0.60 0.61 0.60 0.56 0.50 0.43 0.40 0.41 0.50 0.81 1.04 1.12 1.06 1.07 1.05 1.02 0.94 0.90 1.06 1.06
0.49 0.65 0.76 0.82 0.87 0.89 0.87 0.85 0.89 0.91 0.85 0.78 0.74 0.70 0.65 0.62 0.60 0.59 0.55 0.49 0.47 0.44 0.42 0.36 0.34 0.36 0.45 0.67 1.06 1.24 1.04 0.81 0.75 0.81 0.81 0.80 0.94 1.00
0.45 0.57 0.68 0.74 0.75 0.76 0.78 0.77 0.80 0.84 0.79 0.73 0.71 0.69 0.65 0.60 0.54 0.46 0.40 0.32 0.35 0.37 0.39 0.42 0.40 0.34 0.31 0.39 0.69 0.98 1.01 0.89 0.70 0.62 0.62 0.67 0.71 0.67
0.43 0.54 0.63 0.65 0.64 0.60 0.59 0.61 0.64 0.66 0.68 0.69 0.67 0.65 0.60 0.54 0.44 0.36 0.33 0.32 0.33 0.33 0.33 0.34 0.33 0.30 0.31 0.38 0.56 0.75 0.80 0.71 0.63 0.61 0.56 0.48 0.44 0.53
0.43 0.47 0.52 0.56 0.56 0.53 0.49 0.47 0.48 0.52 0.54 0.56 0.59 0.57 0.50 0.43 0.36 0.30 0.28 0.25 0.24 0.24 0.24 0.26 0.27 0.27 0.28 0.30 0.35 0.44 0.47 0.45 0.39 0.40 0.52 0.54 0.47 0.54

GEFSNE_prec_meanprecacc_198.txt.gz
Total_Precipitation_Accumulation
1.01 0.99 1.02 1.04 1.15 1.29 1.40 1.59 1.77 1.74 1.51 1.29 1.27 1.25 1.19 1.26 1.47 1.24 1.13 1.14 1.04 0.97 0.97 0.95 0.93 0.91 0.91 0.90 0.91 0.97 1.04 1.16 1.34 1.50 1.65 1.80 1.91 1.99
0.97 0.92 0.91 0.93 0.97 1.03 1.11 1.25 1.43 1.57 1.51 1.26 1.13 1.07 1.06 1.07 1.31 1.14 1.14 1.14 0.95 0.83 0.77 0.78 0.78 0.78 0.77 0.78 0.77 0.81 0.87 0.94 1.07 1.22 1.39 1.54 1.63 1.75
0.87 0.86 0.85 0.86 0.90 0.89 0.94 1.04 1.18 1.32 1.45 1.35 1.15 1.04 1.03 1.08 1.13 1.05 1.01 0.94 0.86 0.84 0.73 0.69 0.67 0.69 0.67 0.67 0.71 0.74 0.77 0.85 0.97 1.10 1.24 1.39 1.50 1.55
0.82 0.84 0.82 0.82 0.87 0.86 0.88 0.93 1.05 1.20 1.35 1.41 1.26 1.14 1.05 1.01 1.02 0.99 0.85 0.79 0.80 0.89 0.75 0.68 0.63 0.61 0.65 0.61 0.59 0.64 0.71 0.83 0.94 1.02 1.14 1.26 1.32 1.35
0.78 0.85 0.86 0.86 0.84 0.83 0.86 0.92 1.04 1.16 1.31 1.36 1.28 1.19 1.14 1.07 1.10 1.03 0.92 0.99 0.83 0.82 0.74 0.69 0.65 0.61 0.80 0.84 0.60 0.57 0.61 0.76 0.85 0.90 1.00 1.08 1.12 1.14
0.65 0.78 0.85 0.84 0.84 0.87 0.90 0.95 1.03 1.17 1.26 1.30 1.24 1.15 1.13 1.12 1.17 1.20 1.15 1.09 0.96 0.73 0.75 0.71 0.69 0.69 1.01 1.54 0.99 0.68 0.64 0.70 0.78 0.84 0.88 0.88 0.86 0.85
0.55 0.63 0.70 0.71 0.73 0.78 0.81 0.89 1.01 1.16 1.23 1.29 1.25 1.18 1.10 1.20 1.23 1.19 1.15 1.15 1.01 0.85 0.83 0.76 0.89 1.19 1.73 2.35 1.86 1.20 0.95 0.83 0.75 0.76 0.79 0.79 0.75 0.69
0.62 0.63 0.59 0.60 0.59 0.58 0.65 0.74 0.89 1.08 1.23 1.30 1.27 1.23 1.16 1.19 1.26 1.25 1.24 1.26 1.23 0.95 0.88 0.88 1.10 1.84 2.51 2.84 2.39 1.56 1.21 0.98 0.83 0.83 0.85 0.79 0.68 0.59
0.66 0.65 0.53 0.51 0.61 0.64 0.65 0.67 0.78 0.89 1.10 1.30 1.36 1.26 1.21 1.21 1.33 1.39 1.34 1.31 1.29 1.07 1.05 1.11 1.32 2.10 2.39 2.57 2.36 1.63 1.32 1.14 1.02 1.04 1.01 0.79 0.60 0.50
0.49 0.55 0.63 0.65 0.58 0.60 0.62 0.73 0.82 0.92 1.00 1.11 1.27 1.20 1.12 1.18 1.28 1.32 1.26 1.21 1.13 1.03 1.05 1.22 1.44 1.97 2.00 2.11 2.15 1.66 1.37 1.25 1.18 1.14 1.06 0.81 0.61 0.50
0.35 0.39 0.46 0.50 0.48 0.55 0.67 0.83 0.89 1.00 1.03 1.19 1.21 1.14 1.11 1.11 1.05 1.09 1.27 1.36 1.28 1.03 0.95 1.12 1.33 1.61 1.68 1.78 1.74 1.60 1.46 1.36 1.25 1.17 1.06 0.80 0.62 0.54
0.38 0.43 0.43 0.37 0.40 0.51 0.70 0.89 1.04 1.08 1.17 1.37 1.35 1.30 1.20 1.13 1.03 1.05 1.29 1.45 1.40 1.17 0.92 0.99 1.15 1.30 1.52 1.53 1.43 1.36 1.44 1.47 1.38 1.32 1.16 0.86 0.59 0.49
0.41 0.47 0.47 0.40 0.38 0.44 0.62 0.82 0.99 1.03 1.25 1.51 1.41 1.24 1.16 1.10 1.08 1.09 1.20 1.26 1.23 1.14 0.90 0.97 1.16 1.23 1.35 1.40 1.35 1.35 1.33 1.39 1.42 1.47 1.37 1.07 0.72 0.50
0.48 0.45 0.43 0.41 0.39 0.46 0.61 0.78 0.92 1.10 1.30 1.40 1.21 1.06 0.96 0.93 0.97 0.92 0.88 0.88 0.93 0.93 0.84 0.93 1.17 1.33 1.31 1.22 1.30 1.31 1.32 1.37 1.42 1.49 1.51 1.30 1.00 0.76
0.41 0.45 0.43 0.40 0.51 0.71 0.84 0.95 1.10 1.30 1.36 1.23 1.08 0.96 0.83 0.80 0.77 0.77 0.76 0.78 0.79 0.69 0.61 0.70 0.96 1.16 1.23 1.18 1.23 1.22 1.31 1.52 1.56 1.56 1.53 1.39 1.17 0.95
0.40 0.52 0.58 0.60 0.76 0.97 1.13 1.23 1.33 1.36 1.22 1.09 1.00 0.87 0.72 0.71 0.72 0.70 0.76 0.77 0.81 0.76 0.65 0.66 0.79 0.98 1.10 1.06 1.15 1.25 1.30 1.67 1.79 1.63 1.59 1.56 1.33 1.10
0.37 0.56 0.71 0.75 0.88 1.03 1.17 1.25 1.31 1.30 1.20 1.06 0.95 0.85 0.75 0.70 0.69 0.65 0.70 0.70 0.74 0.76 0.74 0.73 0.77 0.83 0.88 0.94 1.10 1.24 1.36 1.60 1.73 1.54 1.43 1.53 1.44 1.21
0.44 0.68 0.79 0.79 0.85 0.94 1.05 1.15 1.15 1.11 1.05 1.03 0.98 0.93 0.83 0.73 0.70 0.67 0.66 0.69 0.75 0.73 0.71 0.68 0.65 0.64 0.70 0.81 1.03 1.17 1.22 1.39 1.45 1.30 1.12 1.19 1.34 1.19
0.50 0.70 0.80 0.86 0.90 0.92 0.94 0.98 1.05 1.04 0.97 0.95 0.93 0.86 0.78 0.71 0.69 0.69 0.67 0.68 0.67 0.63 0.55 0.48 0.46 0.48 0.57 0.86 1.08 1.16 1.13 1.13 1.10 1.07 0.99 0.94 1.09 1.09
0.51 0.67 0.78 0.85 0.89 0.91 0.89 0.88 0.92 0.95 0.90 0.83 0.80 0.77 0.72 0.71 0.69 0.68 0.65 0.59 0.55 0.51 0.48 0.42 0.39 0.42 0.52 0.73 1.10 1.27 1.07 0.85 0.80 0.85 0.85 0.84 0.98 1.03
0.47 0.59 0.70 0.77 0.78 0.79 0.81 0.81 0.84 0.88 0.83 0.78 0.79 0.79 0.76 0.71 0.65 0.56 0.48 0.39 0.41 0.43 0.45 0.48 0.46 0.38 0.36 0.45 0.73 1.01 1.04 0.92 0.72 0.67 0.66 0.72 0.77 0.73
0.44 0.55 0.64 0.67 0.66 0.63 0.62 0.65 0.67 0.70 0.72 0.74 0.73 0.70 0.66 0.60 0.52 0.44 0.40 0.39 0.40 0.40 0.39 0.40 0.38 0.34 0.35 0.45 0.62 0.80 0.84 0.74 0.66 0.63 0.60 0.53 0.50 0.58
0.44 0.48 0.53 0.57 0.57 0.54 0.52 0.50 0.51 0.56 0.58 0.61 0.64 0.63 0.56 0.49 0.42 0.36 0.34 0.31 0.30 0.29 0.29 0.31 0.33 0.33 0.35 0.36 0.41 0.50 0.53 0.51 0.45 0.45 0.56 0.57 0.51 0.58

GEFSNE_prec_meanprecacc_204.txt.gz
Total_Precipitation_Accumulation
1.03 1.01 1.04 1.07 1.19 1.32 1.44 1.64 1.83 1.78 1.53 1.31 1.28 1.27 1.21 1.29 1.51 1.30 1.19 1.20 1.09 1.01 1.02 1.02 1.00 0.98 0.98 0.97 0.98 1.03 1.08 1.19 1.37 1.53 1.68 1.83 1.94 2.03
0.98 0.92 0.92 0.94 0.99 1.05 1.13 1.28 1.47 1.62 1.55 1.28 1.16 1.11 1.09 1.09 1.34 1.18 1.18 1.20 1.00 0.88 0.82 0.82 0.83 0.83 0.82 0.82 0.84 0.87 0.92 0.98 1.11 1.25 1.42 1.58 1.66 1.78
0.88 0.87 0.86 0.87 0.92 0.92 0.96 1.06 1.20 1.35 1.50 1.40 1.18 1.07 1.05 1.10 1.15 1.07 1.04 0.98 0.91 0.88 0.76 0.71 0.72 0.74 0.71 0.71 0.76 0.79 0.81 0.90 1.01 1.14 1.29 1.44 1.55 1.60
0.83 0.85 0.83 0.84 0.88 0.88 0.90 0.95 1.07 1.23 1.38 1.45 1.29 1.16 1.07 1.03 1.04 1.01 0.86 0.81 0.83 0.93 0.79 0.70 0.66 0.64 0.68 0.64 0.63 0.69 0.76 0.88 0.98 1.06 1.19 1.30 1.37 1.40
0.79 0.85 0.88 0.87 0.86 0.84 0.88 0.94 1.05 1.18 1.33 1.38 1.31 1.22 1.17 1.09 1.12 1.05 0.94 1.00 0.85 0.85 0.78 0.72 0.67 0.64 0.83 0.87 0.63 0.60 0.65 0.79 0.90 0.95 1.04 1.12 1.16 1.19
0.66 0.79 0.86 0.86 0.85 0.90 0.93 0.98 1.05 1.20 1.30 1.34 1.27 1.19 1.16 1.16 1.20 1.22 1.16 1.11 0.97 0.76 0.77 0.74 0.71 0.71 1.04 1.56 1.01 0.71 0.68 0.74 0.83 0.90 0.93 0.92 0.90 0.90
0.57 0.65 0.71 0.74 0.75 0.81 0.84 0.92 1.05 1.19 1.27 1.32 1.28 1.21 1.14 1.23 1.26 1.21 1.17 1.17 1.04 0.88 0.85 0.78 0.92 1.22 1.76 2.39 1.89 1.23 0.99 0.88 0.80 0.82 0.86 0.86 0.80 0.74
0.65 0.66 0.61 0.62 0.60 0.59 0.66 0.76 0.91 1.10 1.26 1.32 1.30 1.26 1.19 1.22 1.29 1.27 1.27 1.29 1.27 0.99 0.91 0.91 1.13 1.87 2.56 2.89 2.43 1.59 1.25 1.02 0.88 0.89 0.90 0.86 0.74 0.64
0.69 0.67 0.55 0.53 0.63 0.64 0.65 0.69 0.80 0.92 1.13 1.33 1.39 1.29 1.25 1.26 1.37 1.42 1.37 1.35 1.33 1.12 1.09 1.15 1.36 2.13 2.43 2.60 2.39 1.65 1.34 1.16 1.05 1.08 1.05 0.84 0.64 0.54
0.51 0.58 0.66 0.67 0.60 0.62 0.63 0.75 0.83 0.94 1.02 1.14 1.31 1.24 1.18 1.24 1.34 1.37 1.31 1.26 1.18 1.09 1.10 1.26 1.48 2.00 2.02 2.13 2.17 1.68 1.38 1.26 1.19 1.16 1.10 0.85 0.64 0.53
0.37 0.41 0.48 0.52 0.50 0.58 0.69 0.86 0.91 1.02 1.05 1.22 1.24 1.18 1.16 1.17 1.12 1.15 1.33 1.42 1.33 1.08 1.00 1.17 1.38 1.66 1.71 1.80 1.76 1.62 1.47 1.37 1.26 1.19 1.08 0.84 0.66 0.58
0.41 0.47 0.46 0.40 0.42 0.53 0.72 0.92 1.06 1.11 1.19 1.39 1.37 1.33 1.23 1.17 1.07 1.10 1.37 1.54 1.49 1.24 0.99 1.05 1.21 1.35 1.56 1.54 1.45 1.38 1.45 1.49 1.39 1.33 1.17 0.88 0.62 0.53
0.43 0.49 0.50 0.43 0.40 0.45 0.63 0.82 1.00 1.04 1.25 1.52 1.42 1.26 1.19 1.13 1.11 1.11 1.23 1.31 1.28 1.19 0.94 1.02 1.21 1.29 1.39 1.43 1.37 1.38 1.35 1.41 1.44 1.49 1.39 1.09 0.74 0.53
0.49 0.46 0.44 0.42 0.40 0.46 0.61 0.79 0.93 1.11 1.30 1.41 1.23 1.08 0.98 0.94 0.98 0.94 0.91 0.91 0.96 0.96 0.87 0.96 1.21 1.37 1.36 1.26 1.33 1.35 1.35 1.39 1.44 1.51 1.52 1.32 1.02 0.79
0.43 0.46 0.44 0.42 0.52 0.72 0.84 0.96 1.11 1.30 1.37 1.23 1.09 0.97 0.84 0.81 0.78 0.79 0.78 0.81 0.81 0.71 0.64 0.73 0.98 1.19 1.27 1.21 1.26 1.25 1.35 1.54 1.58 1.57 1.55 1.41 1.19 0.97
0.41 0.54 0.59 0.62 0.78 0.98 1.14 1.24 1.33 1.37 1.23 1.10 1.01 0.88 0.73 0.73 0.74 0.72 0.79 0.80 0.84 0.78 0.67 0.69 0.82 1.02 1.13 1.08 1.18 1.28 1.33 1.70 1.81 1.65 1.61 1.57 1.35 1.12
0.39 0.57 0.72 0.77 0.90 1.04 1.18 1.26 1.32 1.31 1.22 1.08 0.97 0.87 0.78 0.75 0.73 0.68 0.74 0.74 0.77 0.80 0.77 0.76 0.81 0.86 0.92 0.97 1.12 1.26 1.39 1.62 1.75 1.57 1.46 1.55 1.45 1.23
0.46 0.70 0.82 0.81 0.87 0.96 1.08 1.17 1.16 1.13 1.08 1.06 1.02 0.97 0.88 0.78 0.75 0.71 0.70 0.73 0.79 0.77 0.74 0.71 0.68 0.68 0.74 0.83 1.05 1.20 1.25 1.42 1.48 1.33 1.15 1.22 1.36 1.21
0.52 0.73 0.83 0.88 0.91 0.93 0.95 1.00 1.06 1.06 1.00 0.98 0.95 0.90 0.81 0.74 0.72 0.73 0.71 0.73 0.72 0.67 0.58 0.51 0.49 0.51 0.60 0.88 1.09 1.19 1.16 1.16 1.13 1.10 1.01 0.96 1.12 1.12
0.52 0.68 0.80 0.87 0.91 0.93 0.90 0.89 0.94 0.97 0.92 0.85 0.83 0.80 0.75 0.73 0.72 0.72 0.69 0.64 0.61 0.56 0.52 0.44 0.41 0.45 0.55 0.76 1.13 1.31 1.11 0.89 0.83 0.88 0.87 0.87 1.01 1.06
0.47 0.60 0.71 0.79 0.79 0.80 0.82 0.83 0.86 0.90 0.85 0.80 0.81 0.80 0.78 0.74 0.68 0.59 0.52 0.43 0.44 0.47 0.48 0.51 0.49 0.41 0.39 0.48 0.75 1.03 1.07 0.95 0.75 0.70 0.69 0.74 0.79 0.75
0.44 0.56 0.66 0.68 0.67 0.64 0.64 0.66 0.68 0.71 0.73 0.75 0.75 0.72 0.68 0.63 0.55 0.48 0.44 0.43 0.44 0.46 0.45 0.44 0.41 0.37 0.39 0.48 0.65 0.82 0.86 0.77 0.68 0.66 0.63 0.56 0.54 0.62
0.45 0.49 0.54 0.58 0.58 0.55 0.52 0.50 0.52 0.57 0.60 0.63 0.67 0.65 0.59 0.52 0.45 0.40 0.37 0.34 0.34 0.34 0.36 0.36 0.36 0.37 0.39 0.40 0.45 0.53 0.55 0.53 0.46 0.47 0.58 0.61 0.56 0.63

GEFSNE_prec_meanprecacc_210.txt.gz
Total_Precipitation_Accumulation
1.06 1.03 1.06 1.09 1.20 1.34 1.46 1.68 1.87 1.81 1.55 1.33 1.31 1.28 1.23 1.30 1.52 1.30 1.19 1.21 1.10 1.03 1.04 1.04 1.05 1.07 1.07 1.03 1.04 1.09 1.16 1.28 1.49 1.65 1.80 1.95 2.06 2.15
1.00 0.94 0.93 0.95 1.00 1.06 1.15 1.30 1.50 1.65 1.57 1.30 1.18 1.12 1.10 1.09 1.34 1.18 1.19 1.21 1.02 0.89 0.84 0.85 0.88 0.92 0.93 0.89 0.89 0.93 0.99 1.05 1.19 1.34 1.53 1.69 1.79 1.92
0.90 0.88 0.86 0.87 0.92 0.92 0.96 1.07 1.21 1.38 1.52 1.41 1.21 1.10 1.06 1.10 1.16 1.08 1.05 0.99 0.92 0.90 0.78 0.73 0.75 0.81 0.81 0.79 0.82 0.85 0.87 0.96 1.09 1.23 1.38 1.54 1.66 1.72
0.85 0.86 0.84 0.84 0.89 0.88 0.91 0.96 1.09 1.26 1.41 1.48 1.31 1.18 1.09 1.04 1.05 1.01 0.87 0.82 0.83 0.94 0.81 0.72 0.68 0.67 0.73 0.71 0.71 0.75 0.81 0.93 1.04 1.14 1.28 1.40 1.47 1.50
0.82 0.88 0.90 0.89 0.87 0.85 0.89 0.95 1.07 1.20 1.36 1.41 1.35 1.24 1.19 1.10 1.13 1.06 0.94 1.00 0.85 0.86 0.80 0.74 0.69 0.66 0.86 0.92 0.70 0.66 0.70 0.84 0.94 1.00 1.11 1.20 1.25 1.26
0.69 0.82 0.88 0.88 0.88 0.92 0.95 0.99 1.07 1.22 1.32 1.36 1.30 1.22 1.18 1.18 1.22 1.24 1.18 1.12 0.98 0.77 0.80 0.76 0.74 0.74 1.07 1.61 1.08 0.77 0.73 0.78 0.87 0.94 0.97 0.98 0.96 0.95
0.60 0.68 0.75 0.77 0.77 0.83 0.85 0.93 1.06 1.21 1.28 1.34 1.30 1.24 1.17 1.25 1.29 1.23 1.18 1.19 1.06 0.90 0.88 0.81 0.94 1.24 1.79 2.42 1.93 1.28 1.04 0.93 0.84 0.86 0.90 0.89 0.84 0.78
0.67 0.70 0.65 0.66 0.64 0.62 0.68 0.78 0.93 1.12 1.27 1.34 1.31 1.28 1.22 1.23 1.32 1.31 1.29 1.32 1.30 1.02 0.93 0.93 1.15 1.89 2.58 2.92 2.46 1.63 1.29 1.07 0.92 0.94 0.97 0.93 0.80 0.70
0.73 0.71 0.61 0.59 0.68 0.68 0.68 0.71 0.82 0.94 1.15 1.35 1.41 1.30 1.26 1.27 1.39 1.46 1.39 1.38 1.36 1.15 1.13 1.19 1.39 2.17 2.46 2.64 2.45 1.71 1.40 1.23 1.12 1.15 1.13 0.93 0.74 0.63
0.55 0.63 0.72 0.73 0.67 0.69 0.68 0.78 0.87 0.97 1.05 1.17 1.33 1.26 1.20 1.26 1.36 1.41 1.35 1.30 1.22 1.12 1.14 1.32 1.53 2.04 2.07 2.18 2.24 1.75 1.45 1.33 1.26 1.22 1.15 0.92 0.72 0.61
0.40 0.45 0.53 0.56 0.55 0.63 0.73 0.88 0.94 1.04 1.07 1.24 1.26 1.19 1.18 1.19 1.14 1.18 1.37 1.46 1.37 1.11 1.02 1.21 1.43 1.71 1.74 1.82 1.79 1.65 1.50 1.40 1.28 1.21 1.11 0.87 0.71 0.63
0.43 0.49 0.49 0.43 0.45 0.57 0.74 0.94 1.08 1.12 1.21 1.41 1.39 1.35 1.25 1.19 1.09 1.12 1.39 1.57 1.52 1.26 1.01 1.07 1.23 1.37 1.59 1.57 1.47 1.40 1.47 1.51 1.41 1.35 1.19 0.90 0.64 0.57
0.44 0.50 0.52 0.46 0.43 0.48 0.65 0.85 1.01 1.05 1.26 1.53 1.44 1.27 1.20 1.14 1.12 1.13 1.26 1.34 1.31 1.22 0.97 1.04 1.24 1.32 1.42 1.45 1.40 1.40 1.37 1.43 1.46 1.51 1.41 1.11 0.76 0.55
0.51 0.47 0.46 0.45 0.43 0.50 0.65 0.82 0.95 1.13 1.32 1.42 1.24 1.09 0.99 0.95 0.99 0.95 0.92 0.93 0.98 0.98 0.90 0.99 1.26 1.43 1.43 1.30 1.36 1.37 1.37 1.41 1.46 1.53 1.54 1.35 1.05 0.82
0.44 0.48 0.46 0.45 0.56 0.76 0.89 0.99 1.13 1.33 1.39 1.25 1.10 0.98 0.85 0.82 0.79 0.80 0.79 0.82 0.82 0.73 0.67 0.76 1.02 1.23 1.33 1.29 1.32 1.28 1.37 1.57 1.60 1.59 1.56 1.42 1.21 0.99
0.42 0.55 0.60 0.64 0.82 1.03 1.17 1.26 1.35 1.39 1.25 1.12 1.03 0.89 0.75 0.75 0.75 0.73 0.80 0.81 0.85 0.80 0.69 0.71 0.85 1.04 1.16 1.13 1.24 1.33 1.36 1.73 1.84 1.67 1.63 1.59 1.37 1.14
0.40 0.58 0.73 0.78 0.92 1.07 1.21 1.29 1.33 1.32 1.24 1.10 0.99 0.89 0.80 0.76 0.75 0.70 0.74 0.74 0.78 0.81 0.79 0.78 0.83 0.89 0.95 1.01 1.17 1.30 1.42 1.65 1.78 1.60 1.48 1.57 1.47 1.25
0.46 0.71 0.82 0.82 0.88 0.97 1.10 1.19 1.19 1.15 1.09 1.07 1.03 0.99 0.90 0.79 0.77 0.73 0.72 0.74 0.80 0.78 0.75 0.73 0.71 0.72 0.79 0.87 1.09 1.23 1.27 1.45 1.50 1.35 1.18 1.24 1.38 1.23
0.53 0.73 0.84 0.88 0.92 0.95 0.97 1.02 1.08 1.08 1.01 0.99 0.97 0.92 0.83 0.76 0.74 0.75 0.73 0.75 0.74 0.69 0.61 0.53 0.52 0.55 0.65 0.93 1.13 1.23 1.20 1.19 1.15 1.13 1.04 0.98 1.12 1.13
0.53 0.69 0.81 0.87 0.91 0.94 0.93 0.90 0.95 0.98 0.93 0.86 0.84 0.82 0.77 0.75 0.74 0.74 0.72 0.66 0.63 0.58 0.54 0.47 0.44 0.48 0.60 0.81 1.17 1.36 1.15 0.93 0.86 0.92 0.92 0.90 1.03 1.08
0.48 0.60 0.72 0.79 0.80 0.81 0.84 0.84 0.87 0.91 0.86 0.81 0.82 0.81 0.79 0.75 0.69 0.60 0.54 0.44 0.46 0.49 0.51 0.54 0.52 0.44 0.43 0.53 0.80 1.08 1.11 0.99 0.80 0.75 0.74 0.79 0.83 0.77
0.45 0.57 0.66 0.69 0.68 0.64 0.64 0.67 0.69 0.72 0.74 0.76 0.76 0.73 0.69 0.64 0.56 0.48 0.45 0.44 0.46 0.48 0.47 0.47 0.44 0.40 0.42 0.52 0.69 0.86 0.90 0.79 0.71 0.69 0.66 0.60 0.57 0.65
0.46 0.50 0.55 0.58 0.59 0.56 0.53 0.51 0.53 0.58 0.61 0.64 0.67 0.66 0.60 0.53 0.46 0.40 0.37 0.35 0.35 0.36 0.39 0.40 0.41 0.41 0.43 0.45 0.50 0.57 0.60 0.58 0.50 0.50 0.61 0.63 0.58 0.66

GEFSNE_prec_meanprecacc_216.txt.gz
Total_Precipitation_Accumulation
1.11 1.09 1.11 1.14 1.25 1.39 1.51 1.72 1.91 1.84 1.57 1.34 1.32 1.30 1.24 1.32 1.54 1.31 1.21 1.22 1.11 1.04 1.06 1.05 1.07 1.09 1.09 1.04 1.06 1.11 1.18 1.31 1.52 1.70 1.87 2.05 2.16 2.26
1.05 1.00 0.98 0.99 1.03 1.09 1.19 1.34 1.55 1.69 1.61 1.32 1.21 1.14 1.12 1.11 1.35 1.19 1.21 1.22 1.03 0.90 0.85 0.86 0.89 0.94 0.94 0.90 0.91 0.94 1.00 1.07 1.22 1.39 1.59 1.77 1.89 2.03
0.95 0.93 0.91 0.91 0.97 0.96 1.01 1.12 1.26 1.42 1.56 1.44 1.24 1.12 1.08 1.12 1.18 1.09 1.06 1.00 0.93 0.91 0.79 0.74 0.76 0.82 0.82 0.80 0.84 0.86 0.89 0.98 1.12 1.26 1.43 1.61 1.75 1.83
0.92 0.92 0.88 0.88 0.93 0.93 0.95 1.01 1.14 1.31 1.46 1.52 1.35 1.21 1.11 1.06 1.08 1.04 0.88 0.83 0.85 0.96 0.83 0.74 0.69 0.69 0.77 0.73 0.72 0.77 0.83 0.95 1.07 1.17 1.31 1.44 1.53 1.59
0.87 0.92 0.93 0.93 0.91 0.90 0.93 1.00 1.12 1.25 1.40 1.45 1.37 1.27 1.21 1.13 1.16 1.08 0.96 1.03 0.90 0.91 0.85 0.78 0.72 0.70 0.92 0.94 0.72 0.68 0.73 0.86 0.96 1.02 1.13 1.22 1.28 1.32
0.72 0.85 0.91 0.92 0.92 0.98 1.00 1.04 1.11 1.27 1.36 1.40 1.33 1.25 1.21 1.21 1.26 1.27 1.21 1.16 1.06 0.85 0.87 0.83 0.80 0.82 1.14 1.63 1.11 0.79 0.75 0.81 0.90 0.97 1.00 1.00 0.99 1.00
0.63 0.71 0.78 0.80 0.81 0.87 0.89 0.98 1.11 1.26 1.33 1.38 1.33 1.27 1.20 1.28 1.32 1.27 1.22 1.23 1.11 0.98 0.96 0.89 1.04 1.33 1.85 2.46 1.97 1.32 1.06 0.95 0.87 0.90 0.93 0.92 0.87 0.82
0.70 0.72 0.68 0.68 0.66 0.64 0.71 0.81 0.97 1.17 1.33 1.39 1.35 1.32 1.25 1.28 1.37 1.36 1.33 1.35 1.34 1.08 0.99 1.00 1.23 1.96 2.63 2.96 2.50 1.68 1.33 1.09 0.95 0.97 1.01 0.97 0.84 0.74
0.76 0.74 0.64 0.61 0.70 0.71 0.71 0.74 0.85 0.99 1.20 1.41 1.46 1.34 1.30 1.31 1.44 1.50 1.43 1.42 1.40 1.19 1.18 1.24 1.46 2.23 2.51 2.69 2.49 1.75 1.44 1.26 1.16 1.20 1.18 1.00 0.82 0.71
0.58 0.66 0.76 0.78 0.71 0.72 0.71 0.81 0.90 1.00 1.09 1.21 1.38 1.31 1.24 1.30 1.39 1.43 1.38 1.33 1.25 1.15 1.18 1.36 1.58 2.10 2.12 2.23 2.28 1.79 1.49 1.36 1.29 1.27 1.22 0.99 0.80 0.69
0.42 0.48 0.55 0.59 0.59 0.67 0.77 0.92 0.98 1.09 1.11 1.27 1.29 1.23 1.22 1.23 1.17 1.21 1.40 1.50 1.40 1.15 1.06 1.24 1.47 1.76 1.80 1.88 1.84 1.70 1.54 1.44 1.32 1.25 1.14 0.91 0.75 0.68
0.45 0.52 0.52 0.46 0.49 0.62 0.80 0.99 1.13 1.18 1.27 1.45 1.43 1.40 1.29 1.22 1.12 1.15 1.42 1.61 1.56 1.31 1.05 1.12 1.27 1.42 1.64 1.62 1.51 1.43 1.50 1.54 1.44 1.37 1.21 0.92 0.67 0.60
0.48 0.56 0.59 0.51 0.47 0.53 0.71 0.90 1.07 1.10 1.32 1.57 1.47 1.31 1.25 1.20 1.16 1.17 1.29 1.38 1.35 1.26 1.01 1.08 1.28 1.36 1.47 1.50 1.43 1.43 1.40 1.46 1.48 1.54 1.43 1.13 0.78 0.57
0.56 0.55 0.54 0.52 0.49 0.55 0.70 0.87 1.00 1.16 1.36 1.46 1.27 1.11 1.02 0.99 1.03 0.99 0.97 0.98 1.02 1.02 0.94 1.02 1.29 1.48 1.47 1.35 1.41 1.40 1.39 1.43 1.49 1.56 1.57 1.38 1.07 0.84
0.49 0.53 0.51 0.49 0.60 0.80 0.92 1.01 1.15 1.36 1.42 1.28 1.13 1.01 0.88 0.85 0.82 0.83 0.83 0.86 0.86 0.76 0.69 0.78 1.04 1.27 1.38 1.35 1.37 1.34 1.42 1.60 1.63 1.63 1.60 1.46 1.24 1.02
0.44 0.57 0.62 0.66 0.84 1.04 1.19 1.27 1.36 1.41 1.28 1.15 1.05 0.92 0.78 0.78 0.78 0.76 0.83 0.85 0.89 0.83 0.72 0.74 0.88 1.09 1.21 1.19 1.31 1.38 1.41 1.77 1.87 1.71 1.67 1.63 1.41 1.18
0.42 0.61 0.75 0.80 0.93 1.09 1.23 1.31 1.35 1.34 1.25 1.13 1.02 0.92 0.84 0.80 0.78 0.72 0.77 0.78 0.82 0.85 0.83 0.82 0.87 0.93 0.99 1.05 1.23 1.35 1.46 1.70 1.83 1.64 1.53 1.62 1.52 1.29
0.49 0.74 0.84 0.83 0.89 0.99 1.11 1.22 1.21 1.17 1.11 1.09 1.06 1.02 0.94 0.82 0.79 0.76 0.74 0.77 0.83 0.81 0.78 0.77 0.75 0.75 0.83 0.92 1.14 1.27 1.31 1.48 1.55 1.41 1.23 1.28 1.43 1.28
0.56 0.76 0.85 0.90 0.93 0.96 0.99 1.04 1.10 1.10 1.03 1.00 0.99 0.94 0.86 0.79 0.77 0.77 0.75 0.77 0.77 0.72 0.63 0.56 0.55 0.58 0.69 0.98 1.16 1.25 1.24 1.22 1.20 1.19 1.10 1.03 1.17 1.17
0.56 0.73 0.84 0.89 0.93 0.96 0.95 0.93 0.97 1.00 0.95 0.87 0.86 0.84 0.79 0.77 0.76 0.75 0.73 0.68 0.65 0.60 0.56 0.49 0.46 0.51 0.63 0.85 1.22 1.39 1.18 0.96 0.90 0.97 0.97 0.95 1.08 1.12
0.50 0.62 0.73 0.81 0.81 0.82 0.85 0.86 0.89 0.93 0.87 0.83 0.84 0.83 0.81 0.76 0.71 0.62 0.55 0.46 0.48 0.52 0.53 0.56 0.55 0.47 0.47 0.57 0.85 1.11 1.13 1.01 0.83 0.79 0.79 0.85 0.89 0.83
0.46 0.57 0.67 0.69 0.69 0.65 0.66 0.69 0.72 0.73 0.75 0.77 0.78 0.75 0.70 0.65 0.57 0.50 0.47 0.46 0.48 0.50 0.50 0.50 0.47 0.44 0.47 0.58 0.74 0.90 0.93 0.83 0.74 0.73 0.70 0.64 0.63 0.71
0.48 0.52 0.56 0.59 0.59 0.57 0.54 0.53 0.55 0.59 0.62 0.65 0.68 0.67 0.61 0.54 0.48 0.42 0.39 0.37 0.37 0.39 0.41 0.43 0.46 0.46 0.48 0.51 0.55 0.63 0.65 0.63 0.54 0.54 0.65 0.67 0.61 0.69

GEFSNE_prec_meanprecacc_222.txt.gz
Total_Precipitation_Accumulation
1.17 1.15 1.18 1.20 1.31 1.45 1.60 1.81 2.00 1.91 1.64 1.42 1.40 1.36 1.29 1.37 1.58 1.34 1.24 1.26 1.14 1.07 1.07 1.07 1.09 1.11 1.10 1.06 1.08 1.13 1.21 1.35 1.57 1.76 1.93 2.10 2.22 2.31
1.12 1.06 1.05 1.06 1.10 1.16 1.28 1.44 1.66 1.81 1.70 1.39 1.30 1.22 1.18 1.15 1.39 1.22 1.24 1.24 1.04 0.91 0.86 0.87 0.90 0.95 0.95 0.91 0.92 0.96 1.01 1.09 1.24 1.42 1.63 1.81 1.94 2.10
1.02 1.01 0.99 1.00 1.03 1.02 1.09 1.21 1.36 1.53 1.67 1.52 1.32 1.20 1.15 1.17 1.22 1.13 1.09 1.02 0.95 0.93 0.81 0.75 0.77 0.83 0.83 0.81 0.84 0.87 0.90 0.99 1.13 1.27 1.44 1.62 1.77 1.87
0.97 1.00 0.98 0.97 1.00 1.00 1.04 1.10 1.23 1.41 1.56 1.62 1.44 1.29 1.19 1.13 1.13 1.09 0.92 0.85 0.88 0.99 0.85 0.75 0.70 0.70 0.78 0.74 0.73 0.77 0.84 0.96 1.07 1.17 1.31 1.45 1.54 1.61
0.95 1.00 1.00 1.02 1.00 0.98 1.02 1.07 1.19 1.32 1.50 1.56 1.49 1.38 1.29 1.20 1.23 1.14 1.02 1.08 0.93 0.94 0.87 0.80 0.73 0.72 0.93 0.95 0.72 0.69 0.74 0.87 0.97 1.03 1.13 1.23 1.29 1.33
0.81 0.92 0.98 1.00 0.99 1.04 1.06 1.10 1.18 1.36 1.48 1.52 1.45 1.35 1.31 1.29 1.33 1.33 1.27 1.23 1.11 0.89 0.90 0.84 0.81 0.83 1.15 1.64 1.12 0.80 0.75 0.81 0.90 0.97 1.01 1.01 1.00 1.01
0.70 0.77 0.83 0.84 0.84 0.90 0.93 1.03 1.16 1.32 1.40 1.46 1.42 1.37 1.30 1.37 1.39 1.32 1.28 1.30 1.18 1.05 1.03 0.94 1.07 1.35 1.86 2.47 1.97 1.32 1.07 0.96 0.88 0.91 0.94 0.93 0.88 0.83
0.76 0.76 0.71 0.71 0.69 0.66 0.73 0.83 1.00 1.20 1.37 1.44 1.41 1.39 1.33 1.36 1.44 1.42 1.39 1.42 1.40 1.15 1.09 1.08 1.30 2.02 2.67 2.98 2.51 1.68 1.34 1.10 0.96 0.99 1.02 0.98 0.86 0.76
0.81 0.79 0.67 0.64 0.73 0.73 0.73 0.76 0.88 1.02 1.23 1.45 1.50 1.40 1.36 1.39 1.51 1.56 1.49 1.48 1.46 1.26 1.27 1.32 1.54 2.34 2.59 2.72 2.52 1.77 1.45 1.28 1.18 1.22 1.21 1.02 0.84 0.73
0.64 0.72 0.80 0.82 0.74 0.74 0.73 0.84 0.94 1.05 1.13 1.25 1.43 1.35 1.29 1.36 1.45 1.49 1.44 1.40 1.32 1.23 1.27 1.44 1.66 2.18 2.19 2.29 2.33 1.83 1.52 1.39 1.32 1.31 1.25 1.03 0.84 0.73
0.47 0.53 0.58 0.62 0.62 0.69 0.80 0.96 1.01 1.12 1.14 1.29 1.32 1.27 1.26 1.27 1.22 1.26 1.46 1.56 1.46 1.21 1.13 1.32 1.55 1.84 1.89 1.97 1.92 1.76 1.59 1.48 1.37 1.30 1.19 0.95 0.81 0.75
0.49 0.57 0.56 0.48 0.51 0.65 0.84 1.03 1.18 1.21 1.31 1.48 1.46 1.43 1.33 1.26 1.16 1.20 1.48 1.66 1.61 1.37 1.12 1.19 1.35 1.51 1.73 1.72 1.59 1.50 1.57 1.61 1.51 1.45 1.28 0.97 0.72 0.65
0.52 0.61 0.63 0.54 0.49 0.56 0.75 0.94 1.10 1.14 1.37 1.62 1.51 1.36 1.30 1.25 1.23 1.23 1.35 1.44 1.41 1.31 1.07 1.16 1.36 1.45 1.54 1.58 1.52 1.50 1.47 1.51 1.54 1.60 1.49 1.17 0.81 0.60
0.61 0.61 0.59 0.56 0.53 0.59 0.74 0.91 1.03 1.21 1.41 1.52 1.32 1.16 1.07 1.05 1.09 1.05 1.03 1.04 1.08 1.07 0.99 1.09 1.36 1.54 1.53 1.42 1.48 1.48 1.47 1.50 1.53 1.59 1.61 1.42 1.11 0.87
0.55 0.59 0.57 0.55 0.63 0.83 0.95 1.04 1.18 1.38 1.45 1.31 1.16 1.05 0.93 0.91 0.87 0.88 0.87 0.90 0.90 0.80 0.73 0.81 1.08 1.32 1.43 1.40 1.43 1.40 1.48 1.67 1.68 1.67 1.64 1.50 1.29 1.08
0.49 0.64 0.69 0.72 0.89 1.08 1.21 1.29 1.38 1.43 1.30 1.17 1.07 0.95 0.82 0.83 0.83 0.79 0.86 0.89 0.94 0.88 0.77 0.78 0.91 1.12 1.25 1.24 1.36 1.45 1.48 1.85 1.95 1.78 1.73 1.68 1.45 1.23
0.46 0.66 0.82 0.87 0.99 1.13 1.26 1.32 1.37 1.35 1.27 1.15 1.06 0.96 0.87 0.85 0.82 0.75 0.80 0.81 0.86 0.89 0.87 0.87 0.92 0.98 1.04 1.10 1.28 1.40 1.52 1.76 1.89 1.71 1.60 1.69 1.58 1.34
0.54 0.82 0.92 0.91 0.96 1.04 1.14 1.24 1.24 1.20 1.14 1.12 1.11 1.07 0.97 0.86 0.82 0.78 0.76 0.80 0.86 0.84 0.81 0.80 0.79 0.80 0.88 0.97 1.18 1.32 1.35 1.53 1.60 1.47 1.29 1.35 1.49 1.33
0.60 0.81 0.92 0.97 1.00 1.02 1.03 1.07 1.13 1.14 1.07 1.05 1.03 0.98 0.88 0.81 0.78 0.79 0.77 0.79 0.80 0.75 0.66 0.59 0.58 0.62 0.72 1.02 1.21 1.28 1.27 1.26 1.24 1.24 1.15 1.08 1.21 1.22
0.59 0.76 0.87 0.94 1.00 1.02 0.99 0.95 1.00 1.03 0.97 0.90 0.88 0.86 0.81 0.79 0.78 0.77 0.76 0.70 0.67 0.62 0.59 0.52 0.49 0.55 0.68 0.89 1.26 1.42 1.20 1.00 0.94 1.01 1.01 0.99 1.12 1.16
0.52 0.64 0.76 0.84 0.85 0.85 0.88 0.88 0.91 0.94 0.89 0.84 0.85 0.85 0.82 0.77 0.72 0.63 0.57 0.48 0.50 0.54 0.55 0.58 0.57 0.50 0.50 0.63 0.90 1.16 1.16 1.03 0.86 0.82 0.83 0.89 0.94 0.88
0.48 0.59 0.68 0.71 0.70 0.66 0.67 0.70 0.73 0.75 0.76 0.78 0.78 0.75 0.71 0.66 0.58 0.52 0.49 0.49 0.50 0.53 0.52 0.52 0.49 0.46 0.50 0.62 0.78 0.93 0.96 0.85 0.76 0.75 0.72 0.68 0.67 0.74
0.50 0.54 0.58 0.61 0.61 0.58 0.55 0.54 0.56 0.60 0.63 0.66 0.69 0.68 0.62 0.56 0.50 0.44 0.42 0.39 0.39 0.41 0.43 0.45 0.48 0.48 0.51 0.54 0.58 0.65 0.68 0.65 0.57 0.56 0.67 0.69 0.64 0.72

GEFSNE_prec_meanprecacc_228.txt.gz
Total_Precipitation_Accumulation
1.22 1.20 1.22 1.25 1.36 1.51 1.66 1.91 2.10 1.99 1.70 1.46 1.45 1.41 1.33 1.40 1.61 1.37 1.27 1.29 1.17 1.09 1.10 1.09 1.10 1.12 1.12 1.08 1.10 1.16 1.24 1.38 1.61 1.80 1.97 2.16 2.28 2.37
1.16 1.10 1.09 1.11 1.16 1.23 1.34 1.51 1.74 1.88 1.75 1.43 1.36 1.29 1.23 1.19 1.43 1.26 1.27 1.28 1.08 0.94 0.89 0.90 0.93 0.98 0.97 0.93 0.94 0.98 1.03 1.11 1.28 1.47 1.68 1.87 2.00 2.15
1.05 1.05 1.04 1.06 1.10 1.08 1.15 1.26 1.41 1.59 1.72 1.56 1.38 1.27 1.23 1.25 1.27 1.17 1.12 1.05 0.97 0.96 0.84 0.79 0.79 0.87 0.87 0.84 0.87 0.89 0.92 1.01 1.15 1.31 1.49 1.69 1.84 1.92
1.01 1.04 1.02 1.02 1.04 1.04 1.09 1.15 1.28 1.46 1.62 1.67 1.50 1.35 1.26 1.22 1.21 1.15 0.96 0.89 0.91 1.02 0.88 0.78 0.73 0.72 0.80 0.77 0.76 0.80 0.87 0.98 1.09 1.19 1.35 1.49 1.59 1.66
0.97 1.02 1.03 1.05 1.02 1.01 1.05 1.11 1.23 1.36 1.54 1.61 1.52 1.42 1.35 1.26 1.30 1.19 1.06 1.13 0.97 0.97 0.90 0.82 0.75 0.74 0.95 0.97 0.75 0.71 0.76 0.89 0.99 1.05 1.15 1.25 1.32 1.36
0.83 0.94 1.00 1.02 1.00 1.05 1.08 1.13 1.21 1.38 1.50 1.55 1.47 1.37 1.33 1.33 1.38 1.37 1.30 1.26 1.14 0.91 0.92 0.87 0.83 0.85 1.16 1.65 1.13 0.81 0.77 0.83 0.92 0.99 1.02 1.02 1.02 1.03
0.73 0.80 0.85 0.86 0.85 0.91 0.93 1.03 1.17 1.33 1.42 1.48 1.44 1.38 1.31 1.41 1.43 1.36 1.31 1.32 1.20 1.06 1.05 0.97 1.09 1.37 1.88 2.49 1.98 1.33 1.08 0.97 0.90 0.93 0.96 0.95 0.90 0.85
0.79 0.79 0.74 0.73 0.70 0.67 0.73 0.84 1.01 1.22 1.39 1.46 1.42 1.40 1.35 1.38 1.48 1.45 1.42 1.45 1.42 1.17 1.11 1.11 1.32 2.05 2.69 2.99 2.53 1.70 1.35 1.11 0.98 1.01 1.04 1.00 0.87 0.77
0.84 0.81 0.70 0.66 0.75 0.75 0.74 0.77 0.89 1.03 1.25 1.47 1.52 1.41 1.38 1.42 1.55 1.60 1.53 1.52 1.49 1.28 1.30 1.34 1.56 2.36 2.61 2.74 2.54 1.78 1.47 1.29 1.19 1.24 1.22 1.03 0.85 0.75
0.67 0.73 0.82 0.84 0.76 0.76 0.74 0.85 0.95 1.06 1.14 1.27 1.45 1.37 1.31 1.38 1.49 1.53 1.48 1.43 1.36 1.26 1.30 1.47 1.68 2.20 2.20 2.31 2.35 1.84 1.53 1.40 1.33 1.32 1.26 1.04 0.85 0.74
0.51 0.55 0.61 0.64 0.65 0.72 0.82 0.97 1.02 1.13 1.15 1.31 1.33 1.27 1.27 1.30 1.25 1.29 1.50 1.61 1.50 1.25 1.17 1.35 1.57 1.87 1.91 2.00 1.95 1.78 1.60 1.49 1.38 1.31 1.20 0.96 0.82 0.76
0.53 0.60 0.59 0.51 0.55 0.68 0.86 1.05 1.19 1.22 1.31 1.49 1.47 1.44 1.35 1.30 1.20 1.22 1.51 1.70 1.65 1.40 1.15 1.21 1.38 1.55 1.77 1.76 1.62 1.53 1.59 1.63 1.53 1.46 1.28 0.98 0.73 0.67
0.57 0.66 0.67 0.58 0.52 0.59 0.78 0.97 1.13 1.17 1.39 1.64 1.53 1.38 1.33 1.29 1.26 1.25 1.37 1.46 1.43 1.34 1.09 1.18 1.38 1.48 1.59 1.63 1.56 1.54 1.49 1.54 1.56 1.62 1.51 1.19 0.84 0.62
0.66 0.65 0.65 0.62 0.59 0.65 0.79 0.95 1.08 1.25 1.45 1.56 1.35 1.19 1.10 1.08 1.12 1.08 1.05 1.06 1.11 1.09 1.01 1.11 1.38 1.56 1.57 1.46 1.52 1.52 1.50 1.52 1.56 1.62 1.63 1.44 1.14 0.91
0.59 0.63 0.60 0.58 0.67 0.88 0.99 1.08 1.23 1.44 1.49 1.35 1.20 1.08 0.96 0.95 0.91 0.90 0.89 0.94 0.94 0.82 0.75 0.83 1.09 1.33 1.45 1.43 1.47 1.44 1.51 1.69 1.71 1.70 1.66 1.51 1.31 1.10
0.53 0.66 0.71 0.73 0.90 1.10 1.24 1.32 1.42 1.47 1.33 1.20 1.11 0.98 0.84 0.87 0.86 0.82 0.90 0.94 0.97 0.91 0.80 0.79 0.92 1.13 1.26 1.26 1.40 1.48 1.51 1.87 1.97 1.80 1.75 1.70 1.47 1.24
0.47 0.68 0.83 0.87 1.00 1.15 1.28 1.35 1.39 1.39 1.31 1.19 1.10 0.99 0.90 0.88 0.84 0.77 0.82 0.83 0.87 0.91 0.90 0.88 0.93 0.99 1.06 1.13 1.31 1.44 1.56 1.80 1.92 1.74 1.63 1.72 1.61 1.36
0.55 0.83 0.92 0.91 0.97 1.06 1.17 1.27 1.26 1.23 1.17 1.16 1.14 1.10 1.00 0.87 0.84 0.79 0.77 0.81 0.88 0.86 0.83 0.82 0.80 0.82 0.90 0.99 1.21 1.36 1.39 1.56 1.63 1.51 1.34 1.39 1.53 1.37
0.61 0.82 0.92 0.97 1.01 1.05 1.07 1.10 1.15 1.16 1.10 1.07 1.06 1.01 0.91 0.83 0.79 0.80 0.78 0.80 0.81 0.76 0.68 0.60 0.60 0.65 0.75 1.04 1.23 1.32 1.32 1.30 1.28 1.29 1.20 1.11 1.23 1.25
0.60 0.77 0.88 0.95 1.01 1.04 1.03 0.99 1.03 1.05 0.99 0.92 0.91 0.89 0.84 0.80 0.79 0.78 0.76 0.71 0.68 0.63 0.60 0.53 0.52 0.58 0.70 0.92 1.28 1.45 1.25 1.05 0.97 1.05 1.06 1.03 1.15 1.19
0.54 0.65 0.76 0.85 0.86 0.87 0.90 0.92 0.95 0.97 0.91 0.87 0.87 0.88 0.85 0.79 0.72 0.64 0.58 0.49 0.51 0.55 0.57 0.60 0.59 0.52 0.52 0.65 0.92 1.18 1.21 1.07 0.89 0.85 0.87 0.93 0.98 0.91
0.51 0.61 0.69 0.71 0.71 0.67 0.68 0.72 0.77 0.78 0.79 0.81 0.81 0.78 0.73 0.67 0.59 0.52 0.50 0.50 0.52 0.54 0.54 0.54 0.51 0.48 0.52 0.64 0.81 0.96 1.02 0.89 0.80 0.78 0.77 0.73 0.71 0.77
0.52 0.56 0.59 0.62 0.61 0.59 0.57 0.56 0.59 0.63 0.66 0.69 0.72 0.70 0.63 0.57 0.51 0.45 0.43 0.41 0.42 0.43 0.45 0.47 0.50 0.50 0.52 0.56 0.60 0.69 0.74 0.71 0.62 0.60 0.72 0.75 0.68 0.75

GEFSNE_prec_meanprecacc_234.txt.gz
Total_Precipitation_Accumulation
1.27 1.27 1.30 1.32 1.42 1.55 1.70 1.94 2.14 2.03 1.72 1.48 1.47 1.43 1.38 1.46 1.66 1.41 1.30 1.32 1.20 1.12 1.12 1.11 1.12 1.14 1.13 1.10 1.12 1.18 1.27 1.41 1.64 1.83 2.01 2.20 2.34 2.44
1.20 1.14 1.13 1.14 1.19 1.26 1.38 1.54 1.79 1.94 1.79 1.46 1.39 1.31 1.26 1.24 1.48 1.29 1.29 1.31 1.10 0.96 0.91 0.91 0.94 0.99 0.99 0.94 0.96 1.00 1.05 1.13 1.29 1.49 1.72 1.91 2.06 2.21
1.09 1.08 1.07 1.09 1.13 1.11 1.18 1.30 1.46 1.66 1.77 1.59 1.43 1.33 1.28 1.31 1.34 1.22 1.15 1.07 0.99 0.98 0.85 0.80 0.81 0.88 0.89 0.86 0.88 0.91 0.93 1.02 1.16 1.32 1.51 1.71 1.87 1.97
1.04 1.08 1.06 1.08 1.09 1.07 1.12 1.18 1.34 1.55 1.70 1.74 1.57 1.43 1.36 1.31 1.29 1.20 0.99 0.91 0.93 1.04 0.90 0.80 0.75 0.75 0.83 0.80 0.79 0.83 0.89 1.01 1.11 1.21 1.36 1.51 1.62 1.70
1.00 1.06 1.08 1.10 1.08 1.07 1.11 1.16 1.29 1.42 1.59 1.66 1.59 1.49 1.42 1.34 1.38 1.26 1.12 1.18 1.01 1.01 0.93 0.86 0.80 0.79 1.00 1.01 0.79 0.75 0.80 0.93 1.02 1.07 1.18 1.28 1.36 1.40
0.85 0.96 1.02 1.04 1.03 1.09 1.12 1.16 1.25 1.41 1.52 1.57 1.50 1.41 1.38 1.37 1.43 1.43 1.36 1.31 1.20 0.96 0.97 0.91 0.88 0.90 1.22 1.71 1.19 0.87 0.82 0.89 0.97 1.04 1.06 1.06 1.06 1.07
0.75 0.82 0.87 0.88 0.87 0.93 0.95 1.05 1.18 1.34 1.43 1.50 1.47 1.41 1.35 1.44 1.46 1.40 1.36 1.35 1.23 1.09 1.08 0.99 1.12 1.40 1.90 2.51 2.02 1.37 1.12 1.01 0.94 0.98 1.02 1.00 0.95 0.89
0.81 0.82 0.76 0.76 0.72 0.69 0.75 0.85 1.02 1.23 1.41 1.49 1.44 1.42 1.36 1.40 1.50 1.48 1.46 1.47 1.43 1.18 1.13 1.11 1.34 2.06 2.70 3.00 2.54 1.71 1.37 1.14 1.01 1.03 1.07 1.05 0.92 0.83
0.86 0.84 0.72 0.68 0.77 0.76 0.76 0.79 0.92 1.05 1.27 1.49 1.54 1.42 1.39 1.44 1.57 1.63 1.56 1.54 1.50 1.29 1.31 1.35 1.57 2.37 2.63 2.75 2.55 1.80 1.48 1.31 1.23 1.27 1.24 1.05 0.88 0.78
0.68 0.75 0.83 0.85 0.78 0.79 0.78 0.88 0.97 1.07 1.15 1.28 1.46 1.39 1.34 1.42 1.53 1.56 1.51 1.45 1.38 1.28 1.31 1.48 1.68 2.21 2.22 2.33 2.37 1.86 1.55 1.42 1.35 1.34 1.28 1.05 0.86 0.76
0.51 0.56 0.63 0.67 0.68 0.75 0.84 1.00 1.04 1.15 1.17 1.33 1.36 1.30 1.30 1.33 1.28 1.31 1.53 1.64 1.54 1.29 1.20 1.37 1.58 1.88 1.93 2.02 1.97 1.80 1.62 1.50 1.39 1.32 1.21 0.97 0.83 0.77
0.55 0.61 0.61 0.54 0.58 0.71 0.88 1.08 1.22 1.26 1.34 1.52 1.50 1.48 1.39 1.35 1.24 1.25 1.53 1.72 1.67 1.43 1.18 1.25 1.40 1.57 1.79 1.78 1.65 1.55 1.61 1.64 1.54 1.47 1.29 0.99 0.74 0.68
0.59 0.68 0.69 0.60 0.55 0.62 0.81 1.01 1.17 1.21 1.43 1.68 1.57 1.41 1.37 1.33 1.28 1.27 1.39 1.48 1.44 1.35 1.11 1.20 1.40 1.50 1.61 1.65 1.58 1.56 1.51 1.55 1.58 1.63 1.51 1.20 0.85 0.64
0.67 0.67 0.67 0.64 0.61 0.69 0.83 0.99 1.12 1.28 1.47 1.59 1.39 1.23 1.15 1.13 1.16 1.10 1.06 1.07 1.12 1.10 1.03 1.13 1.40 1.58 1.58 1.48 1.54 1.55 1.53 1.55 1.57 1.63 1.64 1.47 1.15 0.92
0.60 0.64 0.61 0.59 0.70 0.91 1.03 1.12 1.27 1.46 1.51 1.38 1.25 1.13 1.03 1.05 1.01 0.97 0.94 0.97 0.96 0.85 0.78 0.87 1.12 1.36 1.47 1.45 1.49 1.46 1.55 1.73 1.74 1.72 1.69 1.54 1.33 1.11
0.54 0.67 0.73 0.75 0.92 1.12 1.26 1.35 1.44 1.50 1.36 1.24 1.16 1.05 0.92 0.99 1.01 0.96 1.03 1.05 1.03 0.96 0.84 0.84 0.95 1.15 1.28 1.28 1.41 1.51 1.55 1.91 2.00 1.82 1.77 1.72 1.48 1.25
0.50 0.69 0.84 0.89 1.02 1.17 1.30 1.36 1.40 1.40 1.32 1.20 1.11 1.02 0.93 0.93 0.90 0.83 0.90 0.95 0.98 1.00 0.97 0.94 0.97 1.01 1.08 1.15 1.33 1.46 1.59 1.83 1.95 1.76 1.65 1.73 1.62 1.38
0.58 0.86 0.94 0.93 0.98 1.08 1.19 1.28 1.27 1.24 1.18 1.17 1.15 1.11 1.02 0.90 0.87 0.82 0.81 0.86 0.94 0.92 0.90 0.90 0.87 0.86 0.94 1.03 1.24 1.39 1.44 1.60 1.67 1.53 1.35 1.40 1.54 1.39
0.64 0.85 0.94 0.99 1.03 1.06 1.08 1.11 1.16 1.17 1.11 1.09 1.08 1.02 0.93 0.85 0.82 0.82 0.81 0.83 0.84 0.79 0.71 0.64 0.65 0.70 0.81 1.10 1.27 1.36 1.36 1.35 1.33 1.32 1.23 1.13 1.24 1.26
0.62 0.79 0.90 0.97 1.02 1.05 1.04 1.00 1.03 1.06 1.01 0.94 0.93 0.91 0.86 0.83 0.81 0.81 0.79 0.74 0.71 0.66 0.63 0.55 0.54 0.61 0.75 0.96 1.32 1.48 1.28 1.08 1.01 1.09 1.10 1.06 1.17 1.21
0.55 0.67 0.78 0.86 0.87 0.87 0.91 0.92 0.96 0.99 0.93 0.88 0.89 0.90 0.88 0.83 0.76 0.67 0.61 0.52 0.55 0.59 0.60 0.62 0.60 0.56 0.56 0.68 0.96 1.21 1.24 1.10 0.92 0.89 0.91 0.97 1.01 0.93
0.53 0.63 0.71 0.73 0.72 0.68 0.69 0.73 0.78 0.80 0.81 0.83 0.83 0.79 0.75 0.70 0.63 0.55 0.53 0.53 0.56 0.59 0.59 0.57 0.55 0.53 0.56 0.68 0.84 0.99 1.06 0.94 0.84 0.84 0.83 0.78 0.75 0.79
0.55 0.58 0.61 0.63 0.63 0.60 0.58 0.57 0.61 0.66 0.68 0.70 0.73 0.72 0.65 0.59 0.53 0.48 0.46 0.44 0.45 0.47 0.49 0.52 0.55 0.55 0.57 0.60 0.65 0.74 0.80 0.78 0.69 0.67 0.79 0.82 0.74 0.79